DL9BGG-13 Weather Reports


Display with metric or nautical units.
time (UTC)temp
F
wind
direction
speed
MPH
gust
MPH
rain 1hr
in
rain 24hr
in
rain mn
in
humidity
%
barometer
mb
20260507071749 57 22 3.0 0.0 0.00 0.00 0.00 70 1060.4
20260507071636 57 0 5.0 0.0 0.00 0.00 0.00 71 1060.4
20260507071523 57 22 6.0 0.0 0.00 0.00 0.00 70 1060.4
20260507071412 57 22 4.0 0.0 0.00 0.00 0.00 70 1060.4
20260507071304 57 45 9.0 0.0 0.00 0.00 0.00 71 1060.4
20260507071151 57 45 5.0 0.0 0.00 0.00 0.00 71 1060.3
20260507071039 57 22 7.0 0.0 0.00 0.00 0.00 71 1060.4
20260507070934 57 22 6.0 0.0 0.00 0.00 0.00 70 1060.4
20260507070811 57 22 7.0 0.0 0.00 0.00 0.00 70 1060.5
20260507070652 57 45 9.0 0.0 0.00 0.00 0.00 69 1060.5
20260507070547 57 22 5.0 0.0 0.00 0.00 0.00 68 1060.5
20260507070440 58 45 4.0 0.0 0.00 0.00 0.00 68 1060.5
20260507070320 59 90 5.0 0.0 0.00 0.00 0.00 67 1060.4
20260507070200 59 22 8.0 0.0 0.00 0.00 0.00 68 1060.4
20260507070053 59 90 5.0 0.0 0.00 0.00 0.00 69 1060.4
20260507065941 59 45 6.0 0.0 0.00 0.00 0.00 69 1060.4
20260507065819 59 90 8.0 0.0 0.00 0.00 0.00 70 1060.4
20260507065706 58 67 7.0 0.0 0.00 0.00 0.00 70 1060.3
20260507065553 58 45 6.0 0.0 0.00 0.00 0.00 71 1060.3
20260507065440 57 67 0.0 0.0 0.00 0.00 0.00 71 1060.3
20260507065317 57 90 6.0 0.0 0.00 0.00 0.00 72 1060.3
20260507065204 57 22 2.0 0.0 0.00 0.00 0.00 71 1060.3
20260507065043 57 45 2.0 0.0 0.00 0.00 0.00 71 1060.3
20260507064930 57 90 11.0 0.0 0.00 0.00 0.00 73 1060.3
20260507064825 57 90 2.0 0.0 0.00 0.00 0.00 73 1060.2
20260507064712 57 112 6.0 0.0 0.00 0.00 0.00 73 1060.3
20260507064551 57 45 11.0 0.0 0.00 0.00 0.00 74 1060.3
20260507064438 56 90 8.0 0.0 0.00 0.00 0.00 75 1060.2
20260507064325 56 67 7.0 0.0 0.00 0.00 0.00 76 1060.3
20260507064205 55 90 6.0 0.0 0.00 0.00 0.00 77 1060.3
20260507064058 54 67 1.0 0.0 0.00 0.00 0.00 77 1060.3
20260507063939 54 67 5.0 0.0 0.00 0.00 0.00 77 1060.2
20260507063833 54 22 7.0 0.0 0.00 0.00 0.00 76 1060.2
20260507063726 54 22 3.0 0.0 0.00 0.00 0.00 76 1060.1
20260507063607 54 45 5.0 0.0 0.00 0.00 0.00 76 1060.2
20260507063459 54 45 7.0 0.0 0.00 0.00 0.00 76 1060.2
20260507063345 54 67 4.0 0.0 0.00 0.00 0.00 76 1060.1
20260507063232 54 22 0.0 0.0 0.00 0.00 0.00 76 1060.2
20260507063113 55 22 0.0 0.0 0.00 0.00 0.00 76 1060.1
20260507062958 55 112 8.0 0.0 0.00 0.00 0.00 77 1060.1
20260507062845 55 90 7.0 0.0 0.00 0.00 0.00 77 1060.1
20260507062724 54 67 0.0 0.0 0.00 0.00 0.00 77 1060.1
20260507062610 54 0 3.0 0.0 0.00 0.00 0.00 77 1060.0
20260507062450 54 22 6.0 0.0 0.00 0.00 0.00 77 1060.2
20260507062337 54 22 2.0 0.0 0.00 0.00 0.00 77 1060.0
20260507062229 54 45 3.0 0.0 0.00 0.00 0.00 76 1060.1
20260507062116 54 0 0.0 0.0 0.00 0.00 0.00 76 1060.1
20260507062010 54 45 6.0 0.0 0.00 0.00 0.00 76 1060.2
20260507061841 54 67 4.0 0.0 0.00 0.00 0.00 76 1060.1
20260507061727 54 90 6.0 0.0 0.00 0.00 0.00 76 1060.1
20260507061558 54 67 4.0 0.0 0.00 0.00 0.00 75 1060.0
20260507061437 55 90 3.0 0.0 0.00 0.00 0.00 75 1060.1
20260507061316 55 90 3.0 0.0 0.00 0.00 0.00 74 1060.0
20260507061204 55 45 10.0 0.0 0.00 0.00 0.00 74 1060.0
20260507061049 56 90 3.0 0.0 0.00 0.00 0.00 74 1060.0
20260507060929 56 90 8.0 0.0 0.00 0.00 0.00 74 1060.0
20260507060816 57 67 8.0 0.0 0.00 0.00 0.00 74 1060.0
20260507060710 57 90 6.0 0.0 0.00 0.00 0.00 75 1060.0
20260507060550 57 90 4.0 0.0 0.00 0.00 0.00 75 1059.9
20260507060445 56 22 0.0 0.0 0.00 0.00 0.00 75 1059.9
20260507060340 56 0 9.0 0.0 0.00 0.00 0.00 75 1059.9
20260507060226 55 45 6.0 0.0 0.00 0.00 0.00 75 1059.9
20260507060113 56 90 0.0 0.0 0.00 0.00 0.00 75 1059.9
20260507060008 56 45 6.0 0.0 0.00 0.00 0.00 74 1059.9
20260507055848 56 90 8.0 0.0 0.00 0.00 0.00 75 1059.9
20260507055742 56 67 11.0 0.0 0.00 0.00 0.00 75 1059.8
20260507055637 56 90 5.0 0.0 0.00 0.00 0.00 76 1059.8
20260507055517 55 45 3.0 0.0 0.00 0.00 0.00 76 1059.8
20260507055411 55 45 5.0 0.0 0.00 0.00 0.00 75 1059.8
20260507055306 55 45 12.0 0.0 0.00 0.00 0.00 76 1059.8
20260507055146 55 90 6.0 0.0 0.00 0.00 0.00 75 1059.8
20260507055040 55 45 9.0 0.0 0.00 0.00 0.00 75 1059.8
20260507054926 56 67 6.0 0.0 0.00 0.00 0.00 76 1059.8
20260507054813 56 45 6.0 0.0 0.00 0.00 0.00 76 1059.7
20260507054654 55 22 8.0 0.0 0.00 0.00 0.00 76 1059.7
20260507054541 55 45 4.0 0.0 0.00 0.00 0.00 77 1059.7
20260507054433 56 45 5.0 0.0 0.00 0.00 0.00 77 1059.7
20260507054320 56 45 6.0 0.0 0.00 0.00 0.00 77 1059.7
20260507054200 55 45 5.0 0.0 0.00 0.00 0.00 78 1059.6
20260507054056 55 45 0.0 0.0 0.00 0.00 0.00 79 1059.6
20260507053950 55 45 0.0 0.0 0.00 0.00 0.00 79 1059.7
20260507053835 55 22 4.0 0.0 0.00 0.00 0.00 79 1059.6
20260507053722 54 22 0.0 0.0 0.00 0.00 0.00 79 1059.7
20260507053600 54 67 8.0 0.0 0.00 0.00 0.00 80 1059.6
20260507053442 54 22 8.0 0.0 0.00 0.00 0.00 80 1059.6
20260507053335 54 22 6.0 0.0 0.00 0.00 0.00 80 1059.6
20260507053230 54 45 6.0 0.0 0.00 0.00 0.00 81 1059.6
20260507053124 54 45 5.0 0.0 0.00 0.00 0.00 81 1059.6
20260507053003 54 45 2.0 0.0 0.00 0.00 0.00 82 1059.6
20260507052842 54 22 4.0 0.0 0.00 0.00 0.00 82 1059.6
20260507052736 54 22 5.0 0.0 0.00 0.00 0.00 83 1059.6
20260507052631 54 45 9.0 0.0 0.00 0.00 0.00 84 1059.6
20260507052524 54 0 8.0 0.0 0.00 0.00 0.00 85 1059.6
20260507052419 54 22 3.0 0.0 0.00 0.00 0.00 85 1059.5
20260507052306 54 45 0.0 0.0 0.00 0.00 0.00 86 1059.5
20260507052144 53 45 2.0 0.0 0.00 0.00 0.00 86 1059.5
20260507052031 53 0 5.0 0.0 0.00 0.00 0.00 86 1059.5
20260507051912 53 45 6.0 0.0 0.00 0.00 0.00 86 1059.5
20260507051807 53 22 0.0 0.0 0.00 0.00 0.00 87 1059.5
20260507051701 52 45 3.0 0.0 0.00 0.00 0.00 87 1059.5
20260507051434 51 45 2.0 0.0 0.00 0.00 0.00 88 1059.4
20260507050945 51 45 0.0 0.0 0.00 0.00 0.00 88 1059.3
20260507050823 50 22 4.0 0.0 0.00 0.00 0.00 89 1059.3
20260507050701 50 45 0.0 0.0 0.00 0.00 0.00 89 1059.3
20260507050547 50 45 4.0 0.0 0.00 0.00 0.00 89 1059.3
20260507050440 50 22 0.0 0.0 0.00 0.00 0.00 89 1059.3
20260507050329 49 45 0.0 0.0 0.00 0.00 0.00 89 1059.3
20260507050221 49 45 0.0 0.0 0.00 0.00 0.00 89 1059.2
20260507050107 49 22 6.0 0.0 0.00 0.00 0.00 90 1059.3
20260507045952 49 22 2.0 0.0 0.00 0.00 0.00 89 1059.3
20260507045838 48 45 0.0 0.0 0.00 0.00 0.00 89 1059.3
20260507045733 48 45 0.0 0.0 0.00 0.00 0.00 89 1059.3
20260507045627 48 45 0.0 0.0 0.00 0.00 0.00 89 1059.3
20260507045511 48 45 0.0 0.0 0.00 0.00 0.00 89 1059.3
20260507045349 48 45 0.0 0.0 0.00 0.00 0.00 89 1059.2
20260507045235 48 45 0.0 0.0 0.00 0.00 0.00 89 1059.3
20260507045114 49 45 0.0 0.0 0.00 0.00 0.00 89 1059.3
20260507045009 49 45 0.0 0.0 0.00 0.00 0.00 90 1059.3
20260507044855 49 45 0.0 0.0 0.00 0.00 0.00 89 1059.3
20260507044749 49 45 0.0 0.0 0.00 0.00 0.00 89 1059.3
20260507044642 50 45 0.0 0.0 0.00 0.00 0.00 89 1059.2
20260507044536 50 45 0.0 0.0 0.00 0.00 0.00 90 1059.2
20260507044429 50 45 0.0 0.0 0.00 0.00 0.00 90 1059.2
20260507044314 50 45 3.0 0.0 0.00 0.00 0.00 90 1059.2
20260507044200 50 45 0.0 0.0 0.00 0.00 0.00 90 1059.2
20260507044047 49 45 0.0 0.0 0.00 0.00 0.00 90 1059.2
20260507043934 49 45 0.0 0.0 0.00 0.00 0.00 90 1059.2
20260507043822 49 45 0.0 0.0 0.00 0.00 0.00 90 1059.1
20260507043716 49 45 0.0 0.0 0.00 0.00 0.00 90 1059.2
20260507043611 49 45 0.0 0.0 0.00 0.00 0.00 90 1059.1
20260507043450 49 45 0.0 0.0 0.00 0.00 0.00 90 1059.2
20260507043336 49 45 0.0 0.0 0.00 0.00 0.00 91 1059.1
20260507043223 49 45 0.0 0.0 0.00 0.00 0.00 91 1059.1
20260507043110 49 45 3.0 0.0 0.00 0.00 0.00 91 1059.1
20260507042952 49 45 0.0 0.0 0.00 0.00 0.00 91 1059.0
20260507042845 49 22 0.0 0.0 0.00 0.00 0.00 91 1059.1
20260507042741 49 22 5.0 0.0 0.00 0.00 0.00 91 1059.0
20260507042634 48 45 4.0 0.0 0.00 0.00 0.00 92 1059.0
20260507042520 48 45 2.0 0.0 0.00 0.00 0.00 92 1059.0
20260507042354 48 45 0.0 0.0 0.00 0.00 0.00 92 1059.1
20260507042247 48 45 0.0 0.0 0.00 0.00 0.00 92 1059.0
20260507042134 48 45 0.0 0.0 0.00 0.00 0.00 92 1059.1
20260507042004 48 45 0.0 0.0 0.00 0.00 0.00 92 1059.0
20260507041851 48 22 0.0 0.0 0.00 0.00 0.00 91 1059.0
20260507041739 48 45 0.0 0.0 0.00 0.00 0.00 91 1058.9
20260507041633 48 22 5.0 0.0 0.00 0.00 0.00 91 1059.0
20260507041528 48 22 0.0 0.0 0.00 0.00 0.00 92 1059.0
20260507041417 48 22 6.0 0.0 0.00 0.00 0.00 91 1059.0
20260507041309 48 22 3.0 0.0 0.00 0.00 0.00 91 1059.0
20260507041149 48 0 4.0 0.0 0.00 0.00 0.00 91 1059.0
20260507041044 48 22 0.0 0.0 0.00 0.00 0.00 91 1058.9
20260507040922 48 22 4.0 0.0 0.00 0.00 0.00 91 1058.9
20260507040809 48 22 6.0 0.0 0.00 0.00 0.00 91 1058.9
20260507040656 48 45 0.0 0.0 0.00 0.00 0.00 91 1058.9
20260507040535 48 45 0.0 0.0 0.00 0.00 0.00 91 1058.8
20260507040422 48 22 1.0 0.0 0.00 0.00 0.00 91 1058.9
20260507040319 48 0 5.0 0.0 0.00 0.00 0.00 91 1058.8
20260507040212 48 22 4.0 0.0 0.00 0.00 0.00 91 1058.8
20260507040111 48 0 0.0 0.0 0.00 0.00 0.00 91 1058.8
20260507035843 48 0 4.0 0.0 0.00 0.00 0.00 91 1058.8
20260507035737 48 22 0.0 0.0 0.00 0.00 0.00 91 1058.9
20260507035525 47 45 6.0 0.0 0.00 0.00 0.00 91 1058.8
20260507035404 47 22 0.0 0.0 0.00 0.00 0.00 91 1058.8
20260507035251 47 22 6.0 0.0 0.00 0.00 0.00 91 1058.8
20260507035129 47 22 2.0 0.0 0.00 0.00 0.00 91 1058.7
20260507035017 47 22 0.0 0.0 0.00 0.00 0.00 91 1058.7
20260507034855 47 22 3.0 0.0 0.00 0.00 0.00 91 1058.8
20260507034734 47 22 5.0 0.0 0.00 0.00 0.00 91 1058.7
20260507034621 47 22 6.0 0.0 0.00 0.00 0.00 91 1058.8
20260507034516 47 22 0.0 0.0 0.00 0.00 0.00 91 1058.8
20260507034405 47 22 0.0 0.0 0.00 0.00 0.00 91 1058.7
20260507034300 46 22 2.0 0.0 0.00 0.00 0.00 91 1058.7
20260507034152 46 0 0.0 0.0 0.00 0.00 0.00 91 1058.7
20260507034032 46 0 5.0 0.0 0.00 0.00 0.00 91 1058.7
20260507033918 46 22 0.0 0.0 0.00 0.00 0.00 91 1058.7
20260507033759 46 22 0.0 0.0 0.00 0.00 0.00 91 1058.7
20260507033644 47 45 6.0 0.0 0.00 0.00 0.00 91 1058.7
20260507033531 46 0 3.0 0.0 0.00 0.00 0.00 91 1058.7
20260507033418 47 22 6.0 0.0 0.00 0.00 0.00 91 1058.7
20260507033304 47 22 6.0 0.0 0.00 0.00 0.00 91 1058.7
20260507033144 47 0 0.0 0.0 0.00 0.00 0.00 90 1058.7
20260507033030 47 45 3.0 0.0 0.00 0.00 0.00 91 1058.6
20260507032909 47 0 5.0 0.0 0.00 0.00 0.00 90 1058.5
20260507032756 47 22 4.0 0.0 0.00 0.00 0.00 90 1058.6
20260507032652 47 22 9.0 0.0 0.00 0.00 0.00 90 1058.5
20260507032546 47 22 0.0 0.0 0.00 0.00 0.00 90 1058.6
20260507032432 47 0 0.0 0.0 0.00 0.00 0.00 90 1058.7
20260507032312 47 22 7.0 0.0 0.00 0.00 0.00 90 1058.7
20260507032159 47 22 3.0 0.0 0.00 0.00 0.00 90 1058.7
20260507032054 47 0 4.0 0.0 0.00 0.00 0.00 90 1058.7
20260507031949 47 0 6.0 0.0 0.00 0.00 0.00 90 1058.7
20260507031844 47 22 4.0 0.0 0.00 0.00 0.00 90 1058.6
20260507031739 47 22 6.0 0.0 0.00 0.00 0.00 90 1058.5
20260507031633 47 22 7.0 0.0 0.00 0.00 0.00 90 1058.6
20260507031513 47 22 6.0 0.0 0.00 0.00 0.00 90 1058.5
20260507031409 47 45 0.0 0.0 0.00 0.00 0.00 90 1058.5
20260507031302 47 0 5.0 0.0 0.00 0.00 0.00 90 1058.5
20260507031141 47 22 6.0 0.0 0.00 0.00 0.00 90 1058.6
20260507031036 47 22 1.0 0.0 0.00 0.00 0.00 90 1058.6
20260507030924 47 22 2.0 0.0 0.00 0.00 0.00 90 1058.7
20260507030804 47 0 5.0 0.0 0.00 0.00 0.00 90 1058.6
20260507030657 47 22 6.0 0.0 0.00 0.00 0.00 90 1058.6
20260507030552 47 22 3.0 0.0 0.00 0.00 0.00 90 1058.6
20260507030439 47 45 0.0 0.0 0.00 0.00 0.00 90 1058.5
20260507030326 47 22 5.0 0.0 0.00 0.00 0.00 90 1058.5
20260507030213 47 45 6.0 0.0 0.00 0.00 0.00 90 1058.5
20260507030100 47 0 7.0 0.0 0.00 0.00 0.00 90 1058.5
20260507025954 47 0 6.0 0.0 0.00 0.00 0.00 90 1058.4
20260507025841 47 0 7.0 0.0 0.00 0.00 0.00 89 1058.5
20260507025735 47 0 0.0 0.0 0.00 0.00 0.00 89 1058.4
20260507025629 47 0 5.0 0.0 0.00 0.00 0.00 89 1058.4
20260507025523 47 22 9.0 0.0 0.00 0.00 0.00 89 1058.5
20260507025417 47 22 6.0 0.0 0.00 0.00 0.00 89 1058.4
20260507025312 47 22 4.0 0.0 0.00 0.00 0.00 89 1058.4
20260507025204 47 0 6.0 0.0 0.00 0.00 0.00 89 1058.4
20260507025050 47 22 0.0 0.0 0.00 0.00 0.00 89 1058.3
20260507024938 47 22 4.0 0.0 0.00 0.00 0.00 89 1058.4
20260507024822 47 337 4.0 0.0 0.00 0.00 0.00 89 1058.3
20260507024707 47 45 3.0 0.0 0.00 0.00 0.00 89 1058.3
20260507024547 47 0 4.0 0.0 0.00 0.00 0.00 89 1058.3
20260507024439 47 0 5.0 0.0 0.00 0.00 0.00 89 1058.3
20260507024325 47 22 6.0 0.0 0.00 0.00 0.00 89 1058.4
20260507024210 47 45 2.0 0.0 0.00 0.00 0.00 89 1058.3
20260507024050 47 0 8.0 0.0 0.00 0.00 0.00 89 1058.3
20260507023946 47 0 0.0 0.0 0.00 0.00 0.00 89 1058.4
20260507023839 47 0 0.0 0.0 0.00 0.00 0.00 89 1058.4
20260507023734 47 22 0.0 0.0 0.00 0.00 0.00 89 1058.4
20260507023628 47 22 7.0 0.0 0.00 0.00 0.00 89 1058.3
20260507023508 47 22 6.0 0.0 0.00 0.00 0.00 89 1058.4
20260507023402 47 22 6.0 0.0 0.00 0.00 0.00 89 1058.4
20260507023257 47 22 0.0 0.0 0.00 0.00 0.00 89 1058.4
20260507023136 47 45 6.0 0.0 0.00 0.00 0.00 89 1058.3
20260507023030 47 22 6.0 0.0 0.00 0.00 0.00 89 1058.4
20260507022918 47 0 4.0 0.0 0.00 0.00 0.00 89 1058.3
20260507022813 47 45 4.0 0.0 0.00 0.00 0.00 89 1058.3
20260507022700 47 67 7.0 0.0 0.00 0.00 0.00 89 1058.3
20260507022555 47 45 6.0 0.0 0.00 0.00 0.00 88 1058.3
20260507022450 47 45 10.0 0.0 0.00 0.00 0.00 88 1058.3
20260507022337 47 22 5.0 0.0 0.00 0.00 0.00 88 1058.3
20260507022233 47 22 6.0 0.0 0.00 0.00 0.00 88 1058.3
20260507022127 47 22 2.0 0.0 0.00 0.00 0.00 88 1058.2
20260507022005 47 0 2.0 0.0 0.00 0.00 0.00 88 1058.3
20260507021853 47 0 4.0 0.0 0.00 0.00 0.00 88 1058.2
20260507021739 47 0 3.0 0.0 0.00 0.00 0.00 88 1058.3
20260507021625 47 45 6.0 0.0 0.00 0.00 0.00 88 1058.2
20260507021513 47 0 6.0 0.0 0.00 0.00 0.00 88 1058.1
20260507021359 47 0 6.0 0.0 0.00 0.00 0.00 88 1058.2
20260507021246 47 22 4.0 0.0 0.00 0.00 0.00 88 1058.2
20260507021135 47 22 6.0 0.0 0.00 0.00 0.00 88 1058.1
20260507021028 47 22 5.0 0.0 0.00 0.00 0.00 88 1058.1
20260507020906 47 0 3.0 0.0 0.00 0.00 0.00 88 1058.2
20260507020746 47 0 4.0 0.0 0.00 0.00 0.00 88 1058.2
20260507020641 47 22 7.0 0.0 0.00 0.00 0.00 88 1058.1
20260507020528 47 0 6.0 0.0 0.00 0.00 0.00 88 1058.2
20260507020359 47 45 12.0 0.0 0.00 0.00 0.00 88 1058.2
20260507020245 47 22 4.0 0.0 0.00 0.00 0.00 88 1058.2
20260507020132 47 0 6.0 0.0 0.00 0.00 0.00 88 1058.3
20260507020010 47 22 0.0 0.0 0.00 0.00 0.00 88 1058.2
20260507015850 47 0 4.0 0.0 0.00 0.00 0.00 88 1058.2
20260507015745 47 22 4.0 0.0 0.00 0.00 0.00 87 1058.3
20260507015639 47 0 6.0 0.0 0.00 0.00 0.00 87 1058.2
20260507015518 47 0 6.0 0.0 0.00 0.00 0.00 87 1058.2
20260507015406 47 22 5.0 0.0 0.00 0.00 0.00 87 1058.1
20260507015301 47 337 6.0 0.0 0.00 0.00 0.00 87 1058.1
20260507015155 47 22 0.0 0.0 0.00 0.00 0.00 87 1058.0
20260507015042 47 45 4.0 0.0 0.00 0.00 0.00 87 1058.1
20260507014921 47 22 7.0 0.0 0.00 0.00 0.00 87 1058.1
20260507014800 47 22 6.0 0.0 0.00 0.00 0.00 87 1058.0
20260507014655 47 45 4.0 0.0 0.00 0.00 0.00 87 1058.1
20260507014549 47 22 3.0 0.0 0.00 0.00 0.00 87 1058.1
20260507014428 47 22 8.0 0.0 0.00 0.00 0.00 87 1058.0
20260507014315 47 22 5.0 0.0 0.00 0.00 0.00 87 1057.9
20260507014203 47 0 10.0 0.0 0.00 0.00 0.00 87 1058.1
20260507014057 47 22 4.0 0.0 0.00 0.00 0.00 86 1058.1
20260507013946 47 0 7.0 0.0 0.00 0.00 0.00 86 1058.0
20260507013839 47 45 9.0 0.0 0.00 0.00 0.00 86 1058.1
20260507013728 47 0 3.0 0.0 0.00 0.00 0.00 86 1058.1
20260507013620 47 22 0.0 0.0 0.00 0.00 0.00 86 1058.1
20260507013459 47 22 7.0 0.0 0.00 0.00 0.00 86 1058.1
20260507013346 47 22 3.0 0.0 0.00 0.00 0.00 86 1058.0
20260507013226 47 45 2.0 0.0 0.00 0.00 0.00 86 1058.0
20260507013120 47 0 8.0 0.0 0.00 0.00 0.00 86 1057.9
20260507013001 47 22 0.0 0.0 0.00 0.00 0.00 86 1058.0
20260507012853 47 0 9.0 0.0 0.00 0.00 0.00 86 1058.0
20260507012733 47 22 4.0 0.0 0.00 0.00 0.00 86 1058.0
20260507012620 47 0 5.0 0.0 0.00 0.00 0.00 86 1058.1
20260507012508 47 0 5.0 0.0 0.00 0.00 0.00 86 1058.0
20260507012353 47 0 6.0 0.0 0.00 0.00 0.00 86 1058.0
20260507012233 47 0 6.0 0.0 0.00 0.00 0.00 86 1058.0
20260507012128 47 22 7.0 0.0 0.00 0.00 0.00 86 1058.1
20260507012021 47 22 6.0 0.0 0.00 0.00 0.00 86 1058.0
20260507011853 47 0 3.0 0.0 0.00 0.00 0.00 86 1058.1
20260507011740 47 22 6.0 0.0 0.00 0.00 0.00 86 1058.0
20260507011634 47 45 5.0 0.0 0.00 0.00 0.00 86 1058.1
20260507011514 47 22 4.0 0.0 0.00 0.00 0.00 86 1058.0
20260507011400 47 22 4.0 0.0 0.00 0.00 0.00 86 1057.9
20260507011247 47 0 6.0 0.0 0.00 0.00 0.00 86 1058.0
20260507011143 47 0 2.0 0.0 0.00 0.00 0.00 86 1058.1
20260507011036 47 22 4.0 0.0 0.00 0.00 0.00 86 1057.9
20260507010917 47 0 4.0 0.0 0.00 0.00 0.00 86 1058.0
20260507010811 47 22 14.0 0.0 0.00 0.00 0.00 86 1058.0
20260507010650 47 45 5.0 0.0 0.00 0.00 0.00 86 1058.0
20260507010544 47 22 6.0 0.0 0.00 0.00 0.00 86 1058.0
20260507010423 47 45 0.0 0.0 0.00 0.00 0.00 86 1058.1
20260507010306 47 22 6.0 0.0 0.00 0.00 0.00 86 1057.9
20260507005922 47 0 4.0 0.0 0.00 0.00 0.00 85 1057.9
20260507005809 47 22 4.0 0.0 0.00 0.00 0.00 85 1057.9
20260507005650 47 45 6.0 0.0 0.00 0.00 0.00 85 1057.9
20260507005543 47 22 6.0 0.0 0.00 0.00 0.00 85 1057.9
20260507005430 47 22 5.0 0.0 0.00 0.00 0.00 85 1057.9
20260507005318 47 0 3.0 0.0 0.00 0.00 0.00 85 1057.9
20260507005204 47 22 6.0 0.0 0.00 0.00 0.00 85 1057.9
20260507005052 47 22 4.0 0.0 0.00 0.00 0.00 85 1057.9
20260507004946 47 337 3.0 0.0 0.00 0.00 0.00 85 1058.0
20260507004832 47 0 6.0 0.0 0.00 0.00 0.00 85 1057.9
20260507004719 47 0 6.0 0.0 0.00 0.00 0.00 85 1057.9
20260507004606 47 22 7.0 0.0 0.00 0.00 0.00 85 1057.9
20260507004453 47 22 5.0 0.0 0.00 0.00 0.00 85 1057.9
20260507004342 47 22 1.0 0.0 0.00 0.00 0.00 85 1057.9
20260507004235 47 22 2.0 0.0 0.00 0.00 0.00 85 1058.0
20260507004122 47 0 3.0 0.0 0.00 0.00 0.00 85 1057.9
20260507004008 47 22 3.0 0.0 0.00 0.00 0.00 85 1058.0
20260507003851 47 0 2.0 0.0 0.00 0.00 0.00 85 1058.0
20260507003743 47 45 5.0 0.0 0.00 0.00 0.00 85 1058.0
20260507003630 47 22 10.0 0.0 0.00 0.00 0.00 84 1058.0
20260507003525 47 22 5.0 0.0 0.00 0.00 0.00 85 1057.9
20260507003419 47 337 6.0 0.0 0.00 0.00 0.00 84 1057.9
20260507003250 47 0 6.0 0.0 0.00 0.00 0.00 84 1058.0
20260507003138 47 45 4.0 0.0 0.00 0.00 0.00 84 1057.9
20260507003032 47 22 6.0 0.0 0.00 0.00 0.00 84 1057.8
20260507002921 47 22 2.0 0.0 0.00 0.00 0.00 84 1057.9
20260507002757 47 0 4.0 0.0 0.00 0.00 0.00 84 1057.8
20260507002645 47 0 2.0 0.0 0.00 0.00 0.00 83 1057.7
20260507002539 47 337 7.0 0.0 0.00 0.00 0.00 83 1057.7
20260507002433 47 45 0.0 0.0 0.00 0.00 0.00 83 1057.8
20260507002327 47 22 9.0 0.0 0.00 0.00 0.00 83 1057.8
20260507002221 47 0 4.0 0.0 0.00 0.00 0.00 83 1057.7
20260507002116 47 0 8.0 0.0 0.00 0.00 0.00 83 1057.7
20260507002009 47 22 4.0 0.0 0.00 0.00 0.00 83 1057.8
20260507001903 47 45 10.0 0.0 0.00 0.00 0.00 83 1057.7
20260507001756 47 22 4.0 0.0 0.00 0.00 0.00 83 1057.7
20260507001635 47 22 0.0 0.0 0.00 0.00 0.00 83 1057.7
20260507001522 47 45 4.0 0.0 0.00 0.00 0.00 83 1057.7
20260507001414 47 22 5.0 0.0 0.00 0.00 0.00 83 1057.8
20260507001302 47 22 4.0 0.0 0.00 0.00 0.00 83 1057.6
20260507001154 47 0 6.0 0.0 0.00 0.00 0.00 83 1057.7
20260507001041 47 22 5.0 0.0 0.00 0.00 0.00 82 1057.7
20260507000921 47 45 3.0 0.0 0.00 0.00 0.00 82 1057.7
20260507000817 47 22 0.0 0.0 0.00 0.00 0.00 82 1057.7
20260507000711 47 22 3.0 0.0 0.00 0.00 0.00 82 1057.8
20260507000605 47 22 8.0 0.0 0.00 0.00 0.00 82 1057.7
20260507000452 47 22 0.0 0.0 0.00 0.00 0.00 82 1057.8
20260507000346 47 337 5.0 0.0 0.00 0.00 0.00 82 1057.7
20260507000240 47 45 6.0 0.0 0.00 0.00 0.00 82 1057.8
20260507000134 47 0 3.0 0.0 0.00 0.00 0.00 82 1057.8
20260507000028 47 0 6.0 0.0 0.00 0.00 0.00 82 1057.8
20260506235915 47 45 6.0 0.0 0.00 0.00 0.00 81 1057.8
20260506235801 47 45 6.0 0.0 0.00 0.00 0.00 81 1057.8
20260506235649 47 22 6.0 0.0 0.00 0.00 0.00 81 1057.9
20260506235536 47 0 5.0 0.0 0.00 0.00 0.00 81 1057.9
20260506235431 47 0 5.0 0.0 0.00 0.00 0.00 81 1058.0
20260506235325 47 22 14.0 0.0 0.00 0.00 0.00 81 1057.9
20260506235214 47 0 6.0 0.0 0.00 0.00 0.00 81 1058.0
20260506235107 47 0 4.0 0.0 0.00 0.00 0.00 81 1057.8
20260506234957 47 22 3.0 0.0 0.00 0.00 0.00 81 1057.8
20260506234632 47 22 2.0 0.0 0.00 0.00 0.00 81 1057.8
20260506234413 47 0 2.0 0.0 0.00 0.00 0.00 81 1057.8
20260506234300 47 22 5.0 0.0 0.00 0.00 0.00 81 1057.8
20260506234146 47 22 5.0 0.0 0.00 0.00 0.00 81 1057.9
20260506234036 47 0 3.0 0.0 0.00 0.00 0.00 81 1057.8
20260506233929 47 0 6.0 0.0 0.00 0.00 0.00 81 1057.8
20260506233824 47 0 6.0 0.0 0.00 0.00 0.00 81 1057.7
20260506233711 47 45 9.0 0.0 0.00 0.00 0.00 81 1057.8
20260506233606 47 22 3.0 0.0 0.00 0.00 0.00 81 1057.9
20260506233500 47 45 4.0 0.0 0.00 0.00 0.00 81 1057.8
20260506233341 47 0 6.0 0.0 0.00 0.00 0.00 81 1057.9
20260506233234 47 337 6.0 0.0 0.00 0.00 0.00 80 1057.7
20260506233113 47 22 3.0 0.0 0.00 0.00 0.00 80 1057.8
20260506233008 47 45 6.0 0.0 0.00 0.00 0.00 80 1057.8
20260506232854 47 22 0.0 0.0 0.00 0.00 0.00 80 1057.8
20260506232742 47 67 6.0 0.0 0.00 0.00 0.00 80 1057.8
20260506232631 47 0 2.0 0.0 0.00 0.00 0.00 80 1057.9
20260506232524 47 22 6.0 0.0 0.00 0.00 0.00 80 1057.7
20260506232411 47 0 8.0 0.0 0.00 0.00 0.00 80 1057.7
20260506232308 47 0 13.0 0.0 0.00 0.00 0.00 80 1057.9
20260506232201 47 0 6.0 0.0 0.00 0.00 0.00 80 1057.7
20260506232048 47 22 6.0 0.0 0.00 0.00 0.00 80 1057.7
20260506231928 47 22 3.0 0.0 0.00 0.00 0.00 80 1057.7
20260506231822 47 22 6.0 0.0 0.00 0.00 0.00 80 1057.7
20260506231716 47 0 9.0 0.0 0.00 0.00 0.00 80 1057.8
20260506231606 47 45 8.0 0.0 0.00 0.00 0.00 80 1057.7
20260506231458 47 22 6.0 0.0 0.00 0.00 0.00 80 1057.7
20260506231331 47 22 6.0 0.0 0.00 0.00 0.00 80 1057.7
20260506231224 47 22 5.0 0.0 0.00 0.00 0.00 80 1057.7
20260506231111 47 0 1.0 0.0 0.00 0.00 0.00 80 1057.7
20260506230959 47 337 3.0 0.0 0.00 0.00 0.00 80 1057.7
20260506230853 47 0 6.0 0.0 0.00 0.00 0.00 80 1057.7
20260506230732 47 22 6.0 0.0 0.00 0.00 0.00 80 1057.7
20260506230618 47 0 5.0 0.0 0.00 0.00 0.00 80 1057.7
20260506230459 47 22 11.0 0.0 0.00 0.00 0.00 80 1057.8
20260506230355 47 0 5.0 0.0 0.00 0.00 0.00 81 1057.7
20260506230247 47 0 0.0 0.0 0.00 0.00 0.00 81 1057.8
20260506230134 47 22 9.0 0.0 0.00 0.00 0.00 81 1057.8
20260506230031 47 22 2.0 0.0 0.00 0.00 0.00 81 1057.8
20260506225924 47 0 0.0 0.0 0.00 0.00 0.00 81 1057.8
20260506225810 47 45 5.0 0.0 0.00 0.00 0.00 81 1057.8
20260506225641 47 0 7.0 0.0 0.00 0.00 0.00 81 1057.8
20260506225519 47 0 11.0 0.0 0.00 0.00 0.00 81 1057.8
20260506225358 47 45 4.0 0.0 0.00 0.00 0.00 81 1057.8
20260506225250 47 22 6.0 0.0 0.00 0.00 0.00 81 1057.8
20260506225138 47 45 7.0 0.0 0.00 0.00 0.00 82 1057.8
20260506225024 47 45 6.0 0.0 0.00 0.00 0.00 82 1057.8
20260506224902 47 0 4.0 0.0 0.00 0.00 0.00 82 1057.8
20260506224749 47 337 8.0 0.0 0.00 0.00 0.00 82 1057.9
20260506224643 47 0 6.0 0.0 0.00 0.00 0.00 82 1057.8
20260506224524 47 22 0.0 0.0 0.00 0.00 0.00 82 1057.8
20260506224409 47 22 4.0 0.0 0.00 0.00 0.00 82 1057.8
20260506224255 47 45 8.0 0.0 0.00 0.00 0.00 82 1057.8
20260506224142 47 45 3.0 0.0 0.00 0.00 0.00 82 1057.8
20260506224028 47 0 5.0 0.0 0.00 0.00 0.00 82 1057.8
20260506223859 47 45 9.0 0.0 0.00 0.00 0.00 82 1057.8
20260506223738 47 22 7.0 0.0 0.00 0.00 0.00 82 1057.7
20260506223625 47 0 4.0 0.0 0.00 0.00 0.00 82 1057.7
20260506223521 47 22 5.0 0.0 0.00 0.00 0.00 82 1057.7
20260506223406 47 22 4.0 0.0 0.00 0.00 0.00 82 1057.7
20260506223248 47 0 5.0 0.0 0.00 0.00 0.00 82 1057.7
20260506223143 47 22 6.0 0.0 0.00 0.00 0.00 82 1057.7
20260506223035 47 22 3.0 0.0 0.00 0.00 0.00 82 1057.7
20260506222914 47 0 6.0 0.0 0.00 0.00 0.00 82 1057.7
20260506222753 47 45 3.0 0.0 0.00 0.00 0.00 82 1057.7
20260506222639 47 45 4.0 0.0 0.00 0.00 0.00 82 1057.7
20260506222521 47 22 5.0 0.0 0.00 0.00 0.00 82 1057.7
20260506222416 47 22 4.0 0.0 0.00 0.00 0.00 82 1057.7
20260506222306 47 0 5.0 0.0 0.00 0.00 0.00 82 1057.7
20260506222154 47 0 8.0 0.0 0.00 0.00 0.00 82 1057.7
20260506222039 47 45 7.0 0.0 0.00 0.00 0.00 82 1057.7
20260506221919 47 45 7.0 0.0 0.00 0.00 0.00 83 1057.7
20260506221814 47 22 6.0 0.0 0.00 0.00 0.00 83 1057.7
20260506221657 46 45 2.0 0.0 0.00 0.00 0.00 83 1057.7
20260506221545 46 22 6.0 0.0 0.00 0.00 0.00 83 1057.6
20260506221438 46 22 7.0 0.0 0.00 0.00 0.00 83 1057.7
20260506221318 46 0 4.0 0.0 0.00 0.00 0.00 83 1057.7
20260506221204 46 22 5.0 0.0 0.00 0.00 0.00 83 1057.6
20260506221051 46 22 7.0 0.0 0.00 0.00 0.00 83 1057.7
20260506220922 46 22 4.0 0.0 0.00 0.00 0.00 83 1057.6
20260506220809 46 45 3.0 0.0 0.00 0.00 0.00 83 1057.6
20260506220647 46 22 6.0 0.0 0.00 0.00 0.00 82 1057.6
20260506220521 46 45 8.0 0.0 0.00 0.00 0.00 82 1057.7
20260506220413 46 22 4.0 0.0 0.00 0.00 0.00 82 1057.7
20260506220254 46 67 5.0 0.0 0.00 0.00 0.00 82 1057.7
20260506220147 46 45 7.0 0.0 0.00 0.00 0.00 82 1057.7
20260506220033 46 90 6.0 0.0 0.00 0.00 0.00 82 1057.7
20260506215913 46 45 5.0 0.0 0.00 0.00 0.00 82 1057.7
20260506215759 46 22 4.0 0.0 0.00 0.00 0.00 81 1057.7
20260506215647 46 22 5.0 0.0 0.00 0.00 0.00 81 1057.6
20260506215541 46 0 8.0 0.0 0.00 0.00 0.00 81 1057.7
20260506215420 46 22 4.0 0.0 0.00 0.00 0.00 81 1057.7
20260506215259 46 22 4.0 0.0 0.00 0.00 0.00 81 1057.7
20260506215154 46 45 7.0 0.0 0.00 0.00 0.00 82 1057.6
20260506215041 46 0 5.0 0.0 0.00 0.00 0.00 81 1057.7
20260506214919 46 0 0.0 0.0 0.00 0.00 0.00 81 1057.6
20260506214805 46 45 3.0 0.0 0.00 0.00 0.00 81 1057.6
20260506214645 46 22 3.0 0.0 0.00 0.00 0.00 81 1057.7
20260506214534 46 22 6.0 0.0 0.00 0.00 0.00 81 1057.6
20260506214427 46 22 3.0 0.0 0.00 0.00 0.00 81 1057.6
20260506214257 46 22 6.0 0.0 0.00 0.00 0.00 81 1057.6
20260506214136 46 45 2.0 0.0 0.00 0.00 0.00 81 1057.6
20260506214007 46 90 6.0 0.0 0.00 0.00 0.00 81 1057.6
20260506213854 46 22 8.0 0.0 0.00 0.00 0.00 81 1057.6
20260506213740 46 45 5.0 0.0 0.00 0.00 0.00 81 1057.6
20260506213619 46 45 3.0 0.0 0.00 0.00 0.00 82 1057.6
20260506213458 46 45 6.0 0.0 0.00 0.00 0.00 81 1057.6
20260506213340 46 22 4.0 0.0 0.00 0.00 0.00 82 1057.6
20260506213234 46 0 9.0 0.0 0.00 0.00 0.00 82 1057.5
20260506213129 46 22 0.0 0.0 0.00 0.00 0.00 82 1057.6
20260506213015 46 45 5.0 0.0 0.00 0.00 0.00 81 1057.6
20260506212909 46 22 5.0 0.0 0.00 0.00 0.00 81 1057.7
20260506212804 46 22 0.0 0.0 0.00 0.00 0.00 81 1057.6
20260506212651 47 22 4.0 0.0 0.00 0.00 0.00 81 1057.6
20260506212531 47 45 3.0 0.0 0.00 0.00 0.00 81 1057.5
20260506212427 47 22 6.0 0.0 0.00 0.00 0.00 81 1057.6
20260506212319 47 22 5.0 0.0 0.00 0.00 0.00 82 1057.6
20260506212207 47 0 5.0 0.0 0.00 0.00 0.00 82 1057.5
20260506212046 47 0 4.0 0.0 0.00 0.00 0.00 81 1057.5
20260506211932 47 0 6.0 0.0 0.00 0.00 0.00 81 1057.4
20260506211819 47 0 0.0 0.0 0.00 0.00 0.00 81 1057.4
20260506211715 47 22 5.0 0.0 0.00 0.00 0.00 81 1057.4
20260506211609 47 67 4.0 0.0 0.00 0.00 0.00 81 1057.4
20260506211447 47 45 2.0 0.0 0.00 0.00 0.00 81 1057.4
20260506211327 47 45 4.0 0.0 0.00 0.00 0.00 81 1057.4
20260506211212 47 0 6.0 0.0 0.00 0.00 0.00 81 1057.4
20260506211052 47 22 6.0 0.0 0.00 0.00 0.00 81 1057.4
20260506210939 47 0 7.0 0.0 0.00 0.00 0.00 81 1057.3
20260506210817 47 337 6.0 0.0 0.00 0.00 0.00 81 1057.3
20260506210656 47 22 2.0 0.0 0.00 0.00 0.00 81 1057.4
20260506210535 47 337 7.0 0.0 0.00 0.00 0.00 81 1057.4
20260506210413 47 0 4.0 0.0 0.00 0.00 0.00 80 1057.4
20260506210252 47 22 6.0 0.0 0.00 0.00 0.00 80 1057.4
20260506210131 47 22 7.0 0.0 0.00 0.00 0.00 80 1057.4
20260506210002 47 22 2.0 0.0 0.00 0.00 0.00 80 1057.3
20260506205851 47 22 5.0 0.0 0.00 0.00 0.00 80 1057.4
20260506205745 47 22 6.0 0.0 0.00 0.00 0.00 80 1057.3
20260506205641 47 22 5.0 0.0 0.00 0.00 0.00 80 1057.3
20260506205534 47 22 4.0 0.0 0.00 0.00 0.00 80 1057.3
20260506205423 47 0 6.0 0.0 0.00 0.00 0.00 80 1057.3
20260506205318 47 45 6.0 0.0 0.00 0.00 0.00 80 1057.3
20260506205155 47 22 6.0 0.0 0.00 0.00 0.00 80 1057.3
20260506205041 47 45 9.0 0.0 0.00 0.00 0.00 80 1057.3
20260506204921 47 22 4.0 0.0 0.00 0.00 0.00 80 1057.3
20260506204817 47 22 8.0 0.0 0.00 0.00 0.00 80 1057.3
20260506204706 47 22 8.0 0.0 0.00 0.00 0.00 80 1057.4
20260506204550 47 0 4.0 0.0 0.00 0.00 0.00 80 1057.3
20260506204444 47 0 9.0 0.0 0.00 0.00 0.00 80 1057.3
20260506204339 47 0 6.0 0.0 0.00 0.00 0.00 80 1057.3
20260506204218 47 22 6.0 0.0 0.00 0.00 0.00 80 1057.3
20260506204057 47 0 5.0 0.0 0.00 0.00 0.00 80 1057.3
20260506203952 47 22 9.0 0.0 0.00 0.00 0.00 80 1057.4
20260506203831 47 0 6.0 0.0 0.00 0.00 0.00 80 1057.4
20260506203719 47 22 10.0 0.0 0.00 0.00 0.00 80 1057.4
20260506203612 47 0 5.0 0.0 0.00 0.00 0.00 80 1057.4
20260506203459 47 45 4.0 0.0 0.00 0.00 0.00 80 1057.4
20260506203354 47 0 8.0 0.0 0.00 0.00 0.00 80 1057.4
20260506203232 47 0 7.0 0.0 0.00 0.00 0.00 80 1057.4
20260506203113 47 22 12.0 0.0 0.00 0.00 0.00 80 1057.4
20260506202942 47 22 11.0 0.0 0.00 0.00 0.00 81 1057.3
20260506202829 48 0 4.0 0.0 0.00 0.00 0.00 81 1057.3
20260506202708 47 0 8.0 0.0 0.00 0.00 0.00 81 1057.4
20260506202555 48 45 14.0 0.0 0.00 0.00 0.00 80 1057.3
20260506202441 48 0 9.0 0.0 0.00 0.00 0.00 80 1057.2
20260506202323 48 22 11.0 0.0 0.00 0.00 0.00 80 1057.3
20260506202215 48 22 2.0 0.0 0.00 0.00 0.00 80 1057.3
20260506202054 48 0 9.0 0.0 0.00 0.00 0.00 80 1057.2
20260506201932 48 337 10.0 0.0 0.00 0.00 0.00 81 1057.2
20260506201811 48 22 3.0 0.0 0.00 0.00 0.00 81 1057.2
20260506201650 48 45 7.0 0.0 0.00 0.00 0.00 81 1057.3
20260506201529 48 0 7.0 0.0 0.00 0.00 0.00 81 1057.3
20260506201424 48 45 4.0 0.0 0.00 0.00 0.00 81 1057.3
20260506201310 48 45 3.0 0.0 0.00 0.00 0.00 81 1057.3
20260506201151 48 0 4.0 0.0 0.00 0.00 0.00 81 1057.3
20260506201044 48 0 3.0 0.0 0.00 0.00 0.00 80 1057.3
20260506200923 48 22 7.0 0.0 0.00 0.00 0.00 80 1057.3
20260506200811 48 22 8.0 0.0 0.00 0.00 0.00 81 1057.3
20260506200658 48 22 4.0 0.0 0.00 0.00 0.00 81 1057.3
20260506200536 48 22 14.0 0.0 0.00 0.00 0.00 81 1057.3
20260506200415 48 22 6.0 0.0 0.00 0.00 0.00 81 1057.3
20260506200311 48 45 8.0 0.0 0.00 0.00 0.00 81 1057.2
20260506200205 48 22 4.0 0.0 0.00 0.00 0.00 81 1057.2
20260506200052 48 22 10.0 0.0 0.00 0.00 0.00 81 1057.2
20260506195941 47 337 7.0 0.0 0.00 0.00 0.00 81 1057.2
20260506195833 47 22 6.0 0.0 0.00 0.00 0.00 82 1057.2
20260506195720 47 315 7.0 0.0 0.00 0.00 0.00 82 1057.3
20260506195558 47 0 0.0 0.0 0.00 0.00 0.00 82 1057.2
20260506195429 47 22 6.0 0.0 0.00 0.00 0.00 82 1057.3
20260506195316 47 22 5.0 0.0 0.00 0.00 0.00 82 1057.2
20260506195147 47 22 7.0 0.0 0.00 0.00 0.00 82 1057.2
20260506195034 47 67 5.0 0.0 0.00 0.00 0.00 82 1057.2
20260506194920 47 22 12.0 0.0 0.00 0.00 0.00 82 1057.2
20260506194802 47 22 16.0 0.0 0.00 0.00 0.00 82 1057.2
20260506194654 48 0 5.0 0.0 0.00 0.00 0.00 82 1057.2
20260506194541 48 0 7.0 0.0 0.00 0.00 0.00 83 1057.2
20260506194412 48 22 12.0 0.0 0.00 0.00 0.00 83 1057.1
20260506194258 48 0 6.0 0.0 0.00 0.00 0.00 83 1057.2
20260506194130 48 67 12.0 0.0 0.00 0.00 0.00 83 1057.2
20260506194025 48 45 10.0 0.0 0.00 0.00 0.00 83 1057.2
20260506193911 48 0 11.0 0.0 0.00 0.00 0.00 83 1057.2
20260506193744 48 22 6.0 0.0 0.00 0.00 0.00 83 1057.1
20260506193638 48 45 9.0 0.0 0.00 0.00 0.00 83 1057.2
20260506193534 48 45 7.0 0.0 0.00 0.00 0.00 83 1057.1
20260506193427 48 0 8.0 0.0 0.00 0.00 0.00 82 1057.2
20260506193313 48 45 7.0 0.0 0.00 0.00 0.00 82 1057.1
20260506193152 48 0 5.0 0.0 0.00 0.00 0.00 82 1057.1
20260506193031 48 22 3.0 0.0 0.00 0.00 0.00 83 1057.1
20260506192926 48 22 11.0 0.0 0.00 0.00 0.00 83 1057.1
20260506192815 48 0 9.0 0.0 0.00 0.00 0.00 83 1057.1
20260506192708 48 45 16.0 0.0 0.00 0.00 0.00 83 1057.1
20260506192555 48 0 6.0 0.0 0.00 0.00 0.00 82 1057.1
20260506192449 48 337 9.0 0.0 0.00 0.00 0.00 82 1057.0
20260506192336 48 0 4.0 0.0 0.00 0.00 0.00 82 1057.0
20260506192222 48 0 6.0 0.0 0.00 0.00 0.00 81 1057.0
20260506192053 48 22 3.0 0.0 0.00 0.00 0.00 81 1057.0
20260506191934 48 45 7.0 0.0 0.00 0.00 0.00 81 1057.0
20260506191819 48 45 4.0 0.0 0.00 0.00 0.00 81 1057.0
20260506191706 48 22 15.0 0.0 0.00 0.00 0.00 81 1056.9
20260506191553 48 22 6.0 0.0 0.00 0.00 0.00 81 1056.9
20260506191433 48 90 7.0 0.0 0.00 0.00 0.00 81 1056.9
20260506191318 48 22 9.0 0.0 0.00 0.00 0.00 81 1056.9
20260506191206 48 45 6.0 0.0 0.00 0.00 0.00 80 1056.9
20260506191100 48 22 13.0 0.0 0.00 0.00 0.00 80 1056.9
20260506190946 49 0 10.0 0.0 0.00 0.00 0.00 81 1056.9
20260506190828 49 0 7.0 0.0 0.00 0.00 0.00 80 1056.9
20260506190724 49 22 6.0 0.0 0.00 0.00 0.00 80 1056.8
20260506190616 49 22 9.0 0.0 0.00 0.00 0.00 80 1056.9
20260506190504 49 0 6.0 0.0 0.00 0.00 0.00 80 1056.8
20260506190358 49 45 6.0 0.0 0.00 0.00 0.00 79 1056.9
20260506190239 49 22 6.0 0.0 0.00 0.00 0.00 79 1056.8
20260506190126 49 22 6.0 0.0 0.00 0.00 0.00 79 1056.7
20260506190019 49 22 12.0 0.0 0.00 0.00 0.00 79 1056.7
20260506185906 49 22 8.0 0.0 0.00 0.00 0.00 78 1056.7
20260506185752 49 0 6.0 0.0 0.00 0.00 0.00 78 1056.7
20260506185631 50 337 6.0 0.0 0.00 0.00 0.00 78 1056.6
20260506185509 50 45 6.0 0.0 0.00 0.00 0.00 78 1056.6
20260506185348 50 0 6.0 0.0 0.00 0.00 0.00 78 1056.5
20260506185234 50 22 8.0 0.0 0.00 0.00 0.00 78 1056.5
20260506185129 50 0 8.0 0.0 0.00 0.00 0.00 77 1056.5
20260506185023 50 337 4.0 0.0 0.00 0.00 0.00 77 1056.5
20260506184909 50 0 5.0 0.0 0.00 0.00 0.00 77 1056.5
20260506184746 50 22 8.0 0.0 0.00 0.00 0.00 76 1056.4
20260506184634 50 22 9.0 0.0 0.00 0.00 0.00 76 1056.5
20260506184526 50 67 4.0 0.0 0.00 0.00 0.00 76 1056.5
20260506184421 51 0 9.0 0.0 0.00 0.00 0.00 76 1056.5
20260506184314 51 45 10.0 0.0 0.00 0.00 0.00 76 1056.5
20260506184209 51 0 4.0 0.0 0.00 0.00 0.00 76 1056.5
20260506184103 51 337 9.0 0.0 0.00 0.00 0.00 75 1056.6
20260506183943 51 22 7.0 0.0 0.00 0.00 0.00 75 1056.5
20260506183838 51 22 5.0 0.0 0.00 0.00 0.00 76 1056.4
20260506183732 51 45 7.0 0.0 0.00 0.00 0.00 75 1056.4
20260506183610 51 0 6.0 0.0 0.00 0.00 0.00 75 1056.4
20260506183449 51 0 6.0 0.0 0.00 0.00 0.00 75 1056.5
20260506183336 51 0 6.0 0.0 0.00 0.00 0.00 75 1056.5
20260506183215 51 22 5.0 0.0 0.00 0.00 0.00 75 1056.5
20260506183054 51 45 6.0 0.0 0.00 0.00 0.00 75 1056.5
20260506182940 52 337 6.0 0.0 0.00 0.00 0.00 75 1056.5
20260506182829 52 0 6.0 0.0 0.00 0.00 0.00 74 1056.4
20260506182725 51 22 16.0 0.0 0.00 0.00 0.00 74 1056.3
20260506182617 52 45 9.0 0.0 0.00 0.00 0.00 74 1056.4
20260506182506 52 0 19.0 0.0 0.00 0.00 0.00 73 1056.4
20260506182353 52 22 16.0 0.0 0.00 0.00 0.00 72 1056.3
20260506182247 52 0 8.0 0.0 0.00 0.00 0.00 73 1056.3
20260506182141 52 292 10.0 0.0 0.00 0.00 0.00 73 1056.2
20260506182027 52 22 5.0 0.0 0.00 0.00 0.00 73 1056.3
20260506181908 52 45 5.0 0.0 0.00 0.00 0.00 73 1056.2
20260506181801 52 0 11.0 0.0 0.00 0.00 0.00 73 1056.2
20260506181640 52 22 6.0 0.0 0.00 0.00 0.00 73 1056.2
20260506181527 52 337 6.0 0.0 0.00 0.00 0.00 73 1056.2
20260506181408 52 22 12.0 0.0 0.00 0.00 0.00 73 1056.2
20260506181301 52 0 5.0 0.0 0.00 0.00 0.00 73 1056.2
20260506181148 52 0 10.0 0.0 0.00 0.00 0.00 73 1056.1
20260506181029 52 45 5.0 0.0 0.00 0.00 0.00 73 1056.2
20260506180924 52 67 6.0 0.0 0.00 0.00 0.00 73 1056.1
20260506180817 52 0 11.0 0.0 0.00 0.00 0.00 74 1056.1
20260506180655 52 67 12.0 0.0 0.00 0.00 0.00 74 1056.1
20260506180542 52 22 7.0 0.0 0.00 0.00 0.00 74 1056.1
20260506180429 52 0 18.0 0.0 0.00 0.00 0.00 74 1056.0
20260506180307 52 22 13.0 0.0 0.00 0.00 0.00 74 1056.1
20260506180148 52 0 11.0 0.0 0.00 0.00 0.00 74 1056.1
20260506180044 52 22 11.0 0.0 0.00 0.00 0.00 74 1056.1
20260506175939 52 0 9.0 0.0 0.00 0.00 0.00 74 1056.1
20260506175826 52 22 5.0 0.0 0.00 0.00 0.00 73 1056.1
20260506175719 52 0 7.0 0.0 0.00 0.00 0.00 73 1056.1
20260506175605 52 0 7.0 0.0 0.00 0.00 0.00 73 1056.0
20260506175435 52 337 10.0 0.0 0.00 0.00 0.00 73 1056.1
20260506175323 52 45 7.0 0.0 0.00 0.00 0.00 73 1056.1
20260506175209 52 22 9.0 0.0 0.00 0.00 0.00 73 1056.0
20260506175048 52 337 6.0 0.0 0.00 0.00 0.00 73 1056.0
20260506174935 52 337 12.0 0.0 0.00 0.00 0.00 73 1056.0
20260506174814 52 0 6.0 0.0 0.00 0.00 0.00 74 1055.9
20260506174654 52 0 0.0 0.0 0.00 0.00 0.00 74 1056.0
20260506174548 52 0 15.0 0.0 0.00 0.00 0.00 75 1056.0
20260506174443 52 0 6.0 0.0 0.00 0.00 0.00 75 1055.9
20260506174329 52 0 3.0 0.0 0.00 0.00 0.00 75 1055.9
20260506174208 52 0 4.0 0.0 0.00 0.00 0.00 75 1055.8
20260506174055 52 0 6.0 0.0 0.00 0.00 0.00 75 1055.9
20260506173941 52 22 12.0 0.0 0.00 0.00 0.00 75 1055.9
20260506173828 52 0 6.0 0.0 0.00 0.00 0.00 74 1055.8
20260506173443 52 45 17.0 0.0 0.00 0.00 0.00 75 1055.8
20260506173335 52 0 6.0 0.0 0.00 0.00 0.00 75 1055.8
20260506173222 52 0 4.0 0.0 0.00 0.00 0.00 75 1055.8
20260506173110 52 337 7.0 0.0 0.00 0.00 0.00 75 1055.8
20260506172957 52 0 8.0 0.0 0.00 0.00 0.00 75 1055.8
20260506172845 52 22 6.0 0.0 0.00 0.00 0.00 74 1055.8
20260506172738 52 45 17.0 0.0 0.00 0.00 0.00 74 1055.8
20260506172627 52 22 18.0 0.0 0.00 0.00 0.00 75 1055.8
20260506172520 52 0 9.0 0.0 0.00 0.00 0.00 75 1055.8
20260506172407 52 22 9.0 0.0 0.00 0.00 0.00 75 1055.8
20260506172306 52 45 7.0 0.0 0.00 0.00 0.00 74 1055.8
20260506172150 52 22 7.0 0.0 0.00 0.00 0.00 74 1055.8
20260506172035 52 22 6.0 0.0 0.00 0.00 0.00 74 1055.8
20260506171925 52 67 13.0 0.0 0.00 0.00 0.00 74 1055.8
20260506171820 52 22 12.0 0.0 0.00 0.00 0.00 73 1055.8
20260506171712 52 67 14.0 0.0 0.00 0.00 0.00 73 1055.8
20260506171559 52 22 7.0 0.0 0.00 0.00 0.00 73 1055.8
20260506171446 52 22 14.0 0.0 0.00 0.00 0.00 73 1055.8
20260506171332 52 0 7.0 0.0 0.00 0.00 0.00 73 1055.8
20260506171211 52 22 13.0 0.0 0.00 0.00 0.00 74 1055.8
20260506171052 52 22 10.0 0.0 0.00 0.00 0.00 74 1055.8
20260506170948 52 337 14.0 0.0 0.00 0.00 0.00 74 1055.8
20260506170841 52 337 10.0 0.0 0.00 0.00 0.00 74 1055.8
20260506170728 52 22 16.0 0.0 0.00 0.00 0.00 74 1055.8
20260506170615 52 22 8.0 0.0 0.00 0.00 0.00 74 1055.8
20260506170453 52 315 7.0 0.0 0.00 0.00 0.00 74 1055.8
20260506170341 52 22 6.0 0.0 0.00 0.00 0.00 73 1055.8
20260506170228 52 22 9.0 0.0 0.00 0.00 0.00 73 1055.8
20260506170124 52 22 16.0 0.0 0.00 0.00 0.00 72 1055.8
20260506170018 52 0 4.0 0.0 0.00 0.00 0.00 72 1055.7
20260506165904 52 0 6.0 0.0 0.00 0.00 0.00 72 1055.8
20260506165742 52 22 7.0 0.0 0.00 0.00 0.00 72 1055.8
20260506165621 52 67 14.0 0.0 0.00 0.00 0.00 72 1055.8
20260506165502 52 0 6.0 0.0 0.00 0.00 0.00 72 1055.8
20260506165356 52 45 13.0 0.0 0.00 0.00 0.00 72 1055.8
20260506165253 52 0 6.0 0.0 0.00 0.00 0.00 71 1055.8
20260506165144 52 45 11.0 0.0 0.00 0.00 0.00 71 1055.8
20260506165030 52 0 10.0 0.0 0.00 0.00 0.00 71 1055.8
20260506164923 52 0 6.0 0.0 0.00 0.00 0.00 71 1055.8
20260506164753 52 22 10.0 0.0 0.00 0.00 0.00 71 1055.8
20260506164638 52 337 7.0 0.0 0.00 0.00 0.00 71 1055.8
20260506164516 52 0 12.0 0.0 0.00 0.00 0.00 71 1055.8
20260506164405 52 0 10.0 0.0 0.00 0.00 0.00 71 1055.8
20260506164259 53 22 4.0 0.0 0.00 0.00 0.00 70 1055.8
20260506164150 53 337 8.0 0.0 0.00 0.00 0.00 70 1055.8
20260506164036 53 0 10.0 0.0 0.00 0.00 0.00 71 1055.8
20260506163932 53 45 6.0 0.0 0.00 0.00 0.00 71 1055.8
20260506163817 53 22 5.0 0.0 0.00 0.00 0.00 70 1055.8
20260506163704 53 22 9.0 0.0 0.00 0.00 0.00 70 1055.8
20260506163553 53 22 5.0 0.0 0.00 0.00 0.00 70 1055.8
20260506163447 53 337 10.0 0.0 0.00 0.00 0.00 70 1055.8
20260506163334 53 0 10.0 0.0 0.00 0.00 0.00 69 1055.8
20260506163229 54 22 6.0 0.0 0.00 0.00 0.00 68 1055.8
20260506163124 54 0 7.0 0.0 0.00 0.00 0.00 68 1055.8
20260506163010 54 45 15.0 0.0 0.00 0.00 0.00 68 1055.8
20260506162852 54 22 10.0 0.0 0.00 0.00 0.00 68 1055.8
20260506162744 54 0 6.0 0.0 0.00 0.00 0.00 68 1055.8
20260506162630 54 22 9.0 0.0 0.00 0.00 0.00 68 1055.8
20260506162510 54 22 6.0 0.0 0.00 0.00 0.00 69 1055.8
20260506162359 54 45 15.0 0.0 0.00 0.00 0.00 69 1055.8
20260506162252 54 0 15.0 0.0 0.00 0.00 0.00 70 1055.8
20260506162147 54 0 6.0 0.0 0.00 0.00 0.00 71 1055.8
20260506162033 54 22 8.0 0.0 0.00 0.00 0.00 71 1055.8
20260506161928 53 337 6.0 0.0 0.00 0.00 0.00 71 1055.8
20260506161821 53 67 6.0 0.0 0.00 0.00 0.00 71 1055.8
20260506161708 53 0 13.0 0.0 0.00 0.00 0.00 71 1055.7
20260506161557 53 337 13.0 0.0 0.00 0.00 0.00 71 1055.8
20260506161450 53 0 7.0 0.0 0.00 0.00 0.00 71 1055.8
20260506161330 53 22 8.0 0.0 0.00 0.00 0.00 72 1055.8
20260506161216 53 0 15.0 0.0 0.00 0.00 0.00 72 1055.8
20260506161103 53 22 6.0 0.0 0.00 0.00 0.00 72 1055.7
20260506160942 53 0 6.0 0.0 0.00 0.00 0.00 72 1055.8
20260506160837 53 22 5.0 0.0 0.00 0.00 0.00 72 1055.8
20260506160732 53 22 15.0 0.0 0.00 0.00 0.00 71 1055.7
20260506160620 53 0 6.0 0.0 0.00 0.00 0.00 71 1055.7
20260506160515 53 22 17.0 0.0 0.00 0.00 0.00 71 1055.8
20260506160407 53 0 7.0 0.0 0.00 0.00 0.00 71 1055.8
20260506160254 53 45 8.0 0.0 0.00 0.00 0.00 71 1055.7
20260506160143 53 337 12.0 0.0 0.00 0.00 0.00 70 1055.7
20260506160030 53 22 9.0 0.0 0.00 0.00 0.00 70 1055.7
20260506155923 53 337 6.0 0.0 0.00 0.00 0.00 70 1055.7
20260506155813 53 22 5.0 0.0 0.00 0.00 0.00 71 1055.8
20260506155658 53 0 5.0 0.0 0.00 0.00 0.00 70 1055.8
20260506155545 53 45 6.0 0.0 0.00 0.00 0.00 69 1055.8
20260506155432 53 22 6.0 0.0 0.00 0.00 0.00 68 1055.7
20260506155326 54 0 6.0 0.0 0.00 0.00 0.00 68 1055.8
20260506155205 54 0 9.0 0.0 0.00 0.00 0.00 67 1055.8
20260506155052 54 45 16.0 0.0 0.00 0.00 0.00 66 1055.8
20260506154933 54 112 13.0 0.0 0.00 0.00 0.00 66 1055.8
20260506154818 55 0 7.0 0.0 0.00 0.00 0.00 65 1055.8
20260506154705 55 22 6.0 0.0 0.00 0.00 0.00 66 1055.8
20260506154552 55 0 8.0 0.0 0.00 0.00 0.00 67 1055.8
20260506154446 55 22 10.0 0.0 0.00 0.00 0.00 67 1055.8
20260506154334 55 0 4.0 0.0 0.00 0.00 0.00 67 1055.8
20260506154212 55 337 5.0 0.0 0.00 0.00 0.00 68 1055.8
20260506154058 55 0 8.0 0.0 0.00 0.00 0.00 68 1055.8
20260506153948 55 22 12.0 0.0 0.00 0.00 0.00 68 1055.8
20260506153840 55 45 6.0 0.0 0.00 0.00 0.00 68 1055.8
20260506153719 55 0 15.0 0.0 0.00 0.00 0.00 67 1055.8
20260506153606 55 22 3.0 0.0 0.00 0.00 0.00 67 1055.8
20260506153445 55 0 6.0 0.0 0.00 0.00 0.00 66 1055.8
20260506153325 55 22 13.0 0.0 0.00 0.00 0.00 65 1055.8
20260506153221 56 22 15.0 0.0 0.00 0.00 0.00 65 1055.8
20260506153115 56 45 14.0 0.0 0.00 0.00 0.00 66 1055.8
20260506153009 56 67 10.0 0.0 0.00 0.00 0.00 66 1055.8
20260506152904 55 0 17.0 0.0 0.00 0.00 0.00 67 1055.8
20260506152735 55 22 13.0 0.0 0.00 0.00 0.00 67 1055.8
20260506152622 55 337 5.0 0.0 0.00 0.00 0.00 67 1055.8
20260506152500 55 22 4.0 0.0 0.00 0.00 0.00 67 1055.8
20260506152348 55 0 9.0 0.0 0.00 0.00 0.00 66 1055.8
20260506152234 55 45 9.0 0.0 0.00 0.00 0.00 67 1055.7
20260506152113 55 0 6.0 0.0 0.00 0.00 0.00 66 1055.8
20260506152008 55 22 9.0 0.0 0.00 0.00 0.00 67 1055.8
20260506151857 55 0 6.0 0.0 0.00 0.00 0.00 67 1055.8
20260506151749 55 0 5.0 0.0 0.00 0.00 0.00 68 1055.8
20260506151636 55 0 6.0 0.0 0.00 0.00 0.00 67 1055.8
20260506151523 55 45 8.0 0.0 0.00 0.00 0.00 66 1055.8
20260506151411 55 0 13.0 0.0 0.00 0.00 0.00 66 1055.8
20260506151251 56 45 16.0 0.0 0.00 0.00 0.00 66 1055.7
20260506151146 56 22 8.0 0.0 0.00 0.00 0.00 66 1055.7
20260506151040 56 0 10.0 0.0 0.00 0.00 0.00 66 1055.8
20260506150919 56 337 9.0 0.0 0.00 0.00 0.00 67 1055.7
20260506150806 56 22 6.0 0.0 0.00 0.00 0.00 66 1055.7
20260506150646 56 22 5.0 0.0 0.00 0.00 0.00 65 1055.7
20260506150539 56 45 10.0 0.0 0.00 0.00 0.00 64 1055.7
20260506150428 57 22 18.0 0.0 0.00 0.00 0.00 64 1055.6
20260506150313 57 0 11.0 0.0 0.00 0.00 0.00 64 1055.7
20260506150201 57 112 14.0 0.0 0.00 0.00 0.00 65 1055.7
20260506150055 57 22 6.0 0.0 0.00 0.00 0.00 65 1055.7
20260506145949 57 0 12.0 0.0 0.00 0.00 0.00 64 1055.7
20260506145828 58 45 9.0 0.0 0.00 0.00 0.00 63 1055.7
20260506145725 58 45 12.0 0.0 0.00 0.00 0.00 63 1055.7
20260506145618 58 45 10.0 0.0 0.00 0.00 0.00 63 1055.8
20260506145513 58 0 8.0 0.0 0.00 0.00 0.00 62 1055.7
20260506145408 58 337 12.0 0.0 0.00 0.00 0.00 63 1055.7
20260506145256 58 0 6.0 0.0 0.00 0.00 0.00 63 1055.7
20260506145152 58 45 6.0 0.0 0.00 0.00 0.00 63 1055.7
20260506145044 58 45 8.0 0.0 0.00 0.00 0.00 64 1055.7
20260506144923 58 337 8.0 0.0 0.00 0.00 0.00 63 1055.7
20260506144809 58 22 11.0 0.0 0.00 0.00 0.00 64 1055.7
20260506144648 58 0 9.0 0.0 0.00 0.00 0.00 64 1055.8
20260506144535 58 22 9.0 0.0 0.00 0.00 0.00 64 1055.8
20260506144425 58 0 6.0 0.0 0.00 0.00 0.00 64 1055.7
20260506144317 58 22 12.0 0.0 0.00 0.00 0.00 64 1055.7
20260506144157 58 0 6.0 0.0 0.00 0.00 0.00 63 1055.7
20260506144051 58 45 11.0 0.0 0.00 0.00 0.00 62 1055.6
20260506143938 58 22 15.0 0.0 0.00 0.00 0.00 63 1055.7
20260506143816 58 0 8.0 0.0 0.00 0.00 0.00 64 1055.7
20260506143704 58 22 6.0 0.0 0.00 0.00 0.00 65 1055.7
20260506143550 58 22 12.0 0.0 0.00 0.00 0.00 67 1055.8
20260506143429 57 90 6.0 0.0 0.00 0.00 0.00 67 1055.7
20260506143316 57 22 12.0 0.0 0.00 0.00 0.00 67 1055.7
20260506143155 57 22 9.0 0.0 0.00 0.00 0.00 67 1055.8
20260506143044 57 0 6.0 0.0 0.00 0.00 0.00 67 1055.8
20260506142937 57 22 7.0 0.0 0.00 0.00 0.00 67 1055.8
20260506142825 57 0 9.0 0.0 0.00 0.00 0.00 67 1055.7
20260506142720 57 0 11.0 0.0 0.00 0.00 0.00 68 1055.8
20260506142614 57 45 11.0 0.0 0.00 0.00 0.00 67 1055.8
20260506142509 57 337 9.0 0.0 0.00 0.00 0.00 67 1055.8
20260506142404 57 45 18.0 0.0 0.00 0.00 0.00 67 1055.8
20260506142258 57 22 9.0 0.0 0.00 0.00 0.00 67 1055.8
20260506142140 57 90 9.0 0.0 0.00 0.00 0.00 67 1055.8
20260506142032 57 67 10.0 0.0 0.00 0.00 0.00 68 1055.8
20260506141911 57 337 5.0 0.0 0.00 0.00 0.00 67 1055.8
20260506141749 57 22 11.0 0.0 0.00 0.00 0.00 67 1055.9
20260506141629 57 22 7.0 0.0 0.00 0.00 0.00 68 1055.9
20260506141515 57 0 7.0 0.0 0.00 0.00 0.00 69 1055.9
20260506141355 57 45 11.0 0.0 0.00 0.00 0.00 68 1055.8
20260506141250 57 22 9.0 0.0 0.00 0.00 0.00 68 1055.9
20260506141128 57 22 11.0 0.0 0.00 0.00 0.00 69 1055.8
20260506141009 57 0 0.0 0.0 0.00 0.00 0.00 69 1055.8
20260506140902 57 22 8.0 0.0 0.00 0.00 0.00 68 1055.9
20260506140749 57 22 6.0 0.0 0.00 0.00 0.00 68 1055.9
20260506140643 57 22 8.0 0.0 0.00 0.00 0.00 69 1055.9
20260506140529 57 0 11.0 0.0 0.00 0.00 0.00 68 1055.8
20260506140401 57 0 6.0 0.0 0.00 0.00 0.00 69 1055.8
20260506140242 57 90 12.0 0.0 0.00 0.00 0.00 69 1055.8
20260506140137 57 0 6.0 0.0 0.00 0.00 0.00 69 1055.8
20260506140030 57 0 6.0 0.0 0.00 0.00 0.00 70 1055.8
20260506135908 57 0 11.0 0.0 0.00 0.00 0.00 70 1055.8
20260506135747 57 0 4.0 0.0 0.00 0.00 0.00 70 1055.8
20260506135637 57 45 8.0 0.0 0.00 0.00 0.00 70 1055.8
20260506135530 56 45 5.0 0.0 0.00 0.00 0.00 71 1055.8
20260506135427 56 45 9.0 0.0 0.00 0.00 0.00 70 1055.8
20260506135320 57 0 9.0 0.0 0.00 0.00 0.00 70 1055.8
20260506135215 56 0 9.0 0.0 0.00 0.00 0.00 72 1055.9
20260506135102 56 0 5.0 0.0 0.00 0.00 0.00 72 1055.7
20260506134955 56 0 7.0 0.0 0.00 0.00 0.00 72 1055.8
20260506134835 56 22 9.0 0.0 0.00 0.00 0.00 71 1055.8
20260506134719 56 0 11.0 0.0 0.00 0.00 0.00 72 1055.8
20260506134607 56 0 4.0 0.0 0.00 0.00 0.00 72 1055.8
20260506134500 56 45 9.0 0.0 0.00 0.00 0.00 71 1055.8
20260506134355 56 45 14.0 0.0 0.00 0.00 0.00 70 1055.8
20260506134249 56 45 12.0 0.0 0.00 0.00 0.00 71 1055.8
20260506134144 56 22 16.0 0.0 0.00 0.00 0.00 73 1055.8
20260506134031 56 112 7.0 0.0 0.00 0.00 0.00 73 1055.8
20260506133909 55 0 0.0 0.0 0.00 0.00 0.00 72 1055.7
20260506133756 55 22 7.0 0.0 0.00 0.00 0.00 72 1055.8
20260506133651 55 22 5.0 0.0 0.00 0.00 0.00 71 1055.8
20260506133529 56 45 17.0 0.0 0.00 0.00 0.00 72 1055.7
20260506133408 56 67 13.0 0.0 0.00 0.00 0.00 72 1055.8
20260506133302 56 0 6.0 0.0 0.00 0.00 0.00 72 1055.7
20260506133148 56 0 9.0 0.0 0.00 0.00 0.00 72 1055.6
20260506133035 56 45 7.0 0.0 0.00 0.00 0.00 73 1055.7
20260506132914 56 22 11.0 0.0 0.00 0.00 0.00 73 1055.7
20260506132809 56 67 14.0 0.0 0.00 0.00 0.00 72 1055.7
20260506132705 55 45 7.0 0.0 0.00 0.00 0.00 72 1055.7
20260506132558 55 22 10.0 0.0 0.00 0.00 0.00 73 1055.7
20260506132438 55 45 10.0 0.0 0.00 0.00 0.00 73 1055.8
20260506132324 55 0 6.0 0.0 0.00 0.00 0.00 74 1055.8
20260506132214 55 45 6.0 0.0 0.00 0.00 0.00 74 1055.7
20260506132059 55 0 10.0 0.0 0.00 0.00 0.00 73 1055.7
20260506131953 55 0 19.0 0.0 0.00 0.00 0.00 74 1055.7
20260506131840 55 337 9.0 0.0 0.00 0.00 0.00 75 1055.7
20260506131719 55 337 9.0 0.0 0.00 0.00 0.00 74 1055.7
20260506131607 55 45 9.0 0.0 0.00 0.00 0.00 74 1055.6
20260506131500 55 45 7.0 0.0 0.00 0.00 0.00 73 1055.6
20260506131339 55 22 17.0 0.0 0.00 0.00 0.00 74 1055.7
20260506131226 55 0 14.0 0.0 0.00 0.00 0.00 74 1055.7
20260506131113 55 45 10.0 0.0 0.00 0.00 0.00 75 1055.7
20260506131008 55 0 11.0 0.0 0.00 0.00 0.00 75 1055.7
20260506130847 55 0 6.0 0.0 0.00 0.00 0.00 74 1055.7
20260506130733 55 45 6.0 0.0 0.00 0.00 0.00 74 1055.6
20260506130623 55 337 15.0 0.0 0.00 0.00 0.00 74 1055.6
20260506130517 55 0 9.0 0.0 0.00 0.00 0.00 75 1055.7
20260506130403 55 22 11.0 0.0 0.00 0.00 0.00 75 1055.7
20260506130257 55 45 6.0 0.0 0.00 0.00 0.00 75 1055.8
20260506130145 55 0 5.0 0.0 0.00 0.00 0.00 75 1055.7
20260506130031 55 0 6.0 0.0 0.00 0.00 0.00 75 1055.7
20260506125925 55 22 4.0 0.0 0.00 0.00 0.00 75 1055.7
20260506125813 55 337 12.0 0.0 0.00 0.00 0.00 75 1055.7
20260506125700 55 45 11.0 0.0 0.00 0.00 0.00 75 1055.6
20260506125538 55 22 12.0 0.0 0.00 0.00 0.00 75 1055.7
20260506125426 55 22 13.0 0.0 0.00 0.00 0.00 75 1055.7
20260506125315 55 22 14.0 0.0 0.00 0.00 0.00 75 1055.7
20260506125159 55 0 11.0 0.0 0.00 0.00 0.00 74 1055.6
20260506125046 55 337 14.0 0.0 0.00 0.00 0.00 74 1055.7
20260506124934 55 45 6.0 0.0 0.00 0.00 0.00 74 1055.7
20260506124828 55 0 13.0 0.0 0.00 0.00 0.00 74 1055.6
20260506124714 56 45 9.0 0.0 0.00 0.00 0.00 73 1055.6
20260506124553 56 22 13.0 0.0 0.00 0.00 0.00 73 1055.7
20260506124424 56 45 11.0 0.0 0.00 0.00 0.00 73 1055.6
20260506124312 56 22 8.0 0.0 0.00 0.00 0.00 73 1055.6
20260506124207 56 0 4.0 0.0 0.00 0.00 0.00 73 1055.5
20260506124053 56 22 7.0 0.0 0.00 0.00 0.00 74 1055.5
20260506123941 56 0 5.0 0.0 0.00 0.00 0.00 73 1055.5
20260506123818 56 0 13.0 0.0 0.00 0.00 0.00 73 1055.5
20260506123657 56 45 11.0 0.0 0.00 0.00 0.00 73 1055.5
20260506123537 56 22 12.0 0.0 0.00 0.00 0.00 73 1055.5
20260506123430 56 0 8.0 0.0 0.00 0.00 0.00 73 1055.5
20260506123309 56 0 11.0 0.0 0.00 0.00 0.00 72 1055.5
20260506123149 56 45 6.0 0.0 0.00 0.00 0.00 72 1055.5
20260506123045 56 22 5.0 0.0 0.00 0.00 0.00 72 1055.5
20260506122938 56 0 11.0 0.0 0.00 0.00 0.00 71 1055.5
20260506122832 56 0 8.0 0.0 0.00 0.00 0.00 71 1055.5
20260506122727 56 22 5.0 0.0 0.00 0.00 0.00 72 1055.5
20260506122622 56 0 5.0 0.0 0.00 0.00 0.00 71 1055.5
20260506122515 56 22 10.0 0.0 0.00 0.00 0.00 71 1055.5
20260506122402 56 67 8.0 0.0 0.00 0.00 0.00 72 1055.5
20260506122242 56 22 0.0 0.0 0.00 0.00 0.00 72 1055.4
20260506122135 56 67 10.0 0.0 0.00 0.00 0.00 71 1055.4
20260506122022 56 22 6.0 0.0 0.00 0.00 0.00 71 1055.4
20260506121910 56 67 6.0 0.0 0.00 0.00 0.00 70 1055.5
20260506121757 57 22 13.0 0.0 0.00 0.00 0.00 70 1055.4
20260506121653 57 45 12.0 0.0 0.00 0.00 0.00 70 1055.5
20260506121538 57 45 7.0 0.0 0.00 0.00 0.00 71 1055.4
20260506121424 57 22 6.0 0.0 0.00 0.00 0.00 71 1055.4
20260506121305 57 337 8.0 0.0 0.00 0.00 0.00 70 1055.4
20260506121158 57 67 12.0 0.0 0.00 0.00 0.00 70 1055.4
20260506121037 57 45 8.0 0.0 0.00 0.00 0.00 69 1055.4
20260506120916 57 45 13.0 0.0 0.00 0.00 0.00 68 1055.4
20260506120813 57 0 13.0 0.0 0.00 0.00 0.00 68 1055.3
20260506120658 58 45 6.0 0.0 0.00 0.00 0.00 69 1055.3
20260506120545 57 45 6.0 0.0 0.00 0.00 0.00 69 1055.3
20260506120431 57 337 6.0 0.0 0.00 0.00 0.00 70 1055.4
20260506120311 57 0 5.0 0.0 0.00 0.00 0.00 69 1055.2
20260506120207 57 22 8.0 0.0 0.00 0.00 0.00 69 1055.2
20260506120100 57 67 10.0 0.0 0.00 0.00 0.00 69 1055.2
20260506115948 57 45 8.0 0.0 0.00 0.00 0.00 69 1055.2
20260506115820 57 22 15.0 0.0 0.00 0.00 0.00 70 1055.2
20260506115715 57 0 13.0 0.0 0.00 0.00 0.00 69 1055.3
20260506115609 57 22 9.0 0.0 0.00 0.00 0.00 70 1055.3
20260506115505 57 45 12.0 0.0 0.00 0.00 0.00 70 1055.3
20260506115400 57 22 11.0 0.0 0.00 0.00 0.00 70 1055.2
20260506115253 57 45 13.0 0.0 0.00 0.00 0.00 69 1055.3
20260506115140 57 22 9.0 0.0 0.00 0.00 0.00 69 1055.3
20260506115035 57 337 5.0 0.0 0.00 0.00 0.00 68 1055.4
20260506114931 57 0 9.0 0.0 0.00 0.00 0.00 68 1055.3
20260506114824 58 0 6.0 0.0 0.00 0.00 0.00 68 1055.3
20260506114706 58 45 11.0 0.0 0.00 0.00 0.00 68 1055.3
20260506114558 58 0 17.0 0.0 0.00 0.00 0.00 68 1055.3
20260506114448 58 45 12.0 0.0 0.00 0.00 0.00 68 1055.3
20260506114340 58 292 7.0 0.0 0.00 0.00 0.00 68 1055.3
20260506114227 58 22 8.0 0.0 0.00 0.00 0.00 67 1055.3
20260506114122 58 22 8.0 0.0 0.00 0.00 0.00 66 1055.2
20260506114001 58 45 11.0 0.0 0.00 0.00 0.00 66 1055.2
20260506113840 58 67 7.0 0.0 0.00 0.00 0.00 65 1055.2
20260506113726 58 22 8.0 0.0 0.00 0.00 0.00 66 1055.2
20260506113605 58 67 6.0 0.0 0.00 0.00 0.00 66 1055.2
20260506113452 58 22 8.0 0.0 0.00 0.00 0.00 66 1055.3
20260506113347 58 67 7.0 0.0 0.00 0.00 0.00 65 1055.3
20260506113235 58 0 13.0 0.0 0.00 0.00 0.00 64 1055.3
20260506113128 58 45 9.0 0.0 0.00 0.00 0.00 65 1055.3
20260506113014 58 22 13.0 0.0 0.00 0.00 0.00 64 1055.3
20260506112902 58 22 15.0 0.0 0.00 0.00 0.00 64 1055.3
20260506112748 58 0 12.0 0.0 0.00 0.00 0.00 64 1055.3
20260506112627 58 22 12.0 0.0 0.00 0.00 0.00 64 1055.3
20260506112520 58 0 5.0 0.0 0.00 0.00 0.00 64 1055.3
20260506112409 58 45 14.0 0.0 0.00 0.00 0.00 64 1055.3
20260506112305 58 45 8.0 0.0 0.00 0.00 0.00 64 1055.3
20260506112149 58 22 6.0 0.0 0.00 0.00 0.00 63 1055.3
20260506112045 58 22 7.0 0.0 0.00 0.00 0.00 63 1055.3
20260506111939 58 0 4.0 0.0 0.00 0.00 0.00 63 1055.4
20260506111834 58 67 10.0 0.0 0.00 0.00 0.00 62 1055.3
20260506111712 58 0 12.0 0.0 0.00 0.00 0.00 62 1055.3
20260506111600 58 45 18.0 0.0 0.00 0.00 0.00 63 1055.4
20260506111447 58 0 6.0 0.0 0.00 0.00 0.00 63 1055.2
20260506111341 58 67 11.0 0.0 0.00 0.00 0.00 63 1055.3
20260506111237 58 22 4.0 0.0 0.00 0.00 0.00 62 1055.4
20260506111132 58 22 5.0 0.0 0.00 0.00 0.00 62 1055.3
20260506111025 58 22 8.0 0.0 0.00 0.00 0.00 62 1055.2
20260506110913 58 22 9.0 0.0 0.00 0.00 0.00 62 1055.3
20260506110752 58 337 9.0 0.0 0.00 0.00 0.00 62 1055.2
20260506110631 58 67 13.0 0.0 0.00 0.00 0.00 62 1055.3
20260506110517 57 67 15.0 0.0 0.00 0.00 0.00 61 1055.2
20260506110357 57 45 7.0 0.0 0.00 0.00 0.00 60 1055.3
20260506110251 57 22 18.0 0.0 0.00 0.00 0.00 61 1055.2
20260506110147 57 45 9.0 0.0 0.00 0.00 0.00 60 1055.3
20260506110042 57 67 12.0 0.0 0.00 0.00 0.00 61 1055.3
20260506105936 57 67 9.0 0.0 0.00 0.00 0.00 61 1055.3
20260506105815 57 45 11.0 0.0 0.00 0.00 0.00 62 1055.3
20260506105654 57 45 7.0 0.0 0.00 0.00 0.00 61 1055.2
20260506105549 57 90 7.0 0.0 0.00 0.00 0.00 61 1055.2
20260506105443 57 45 18.0 0.0 0.00 0.00 0.00 60 1055.2
20260506105330 57 45 12.0 0.0 0.00 0.00 0.00 61 1055.2
20260506105201 57 90 5.0 0.0 0.00 0.00 0.00 61 1055.2
20260506105048 57 67 11.0 0.0 0.00 0.00 0.00 60 1055.2
20260506104935 57 45 8.0 0.0 0.00 0.00 0.00 60 1055.2
20260506104814 57 22 10.0 0.0 0.00 0.00 0.00 61 1055.2
20260506104701 57 45 4.0 0.0 0.00 0.00 0.00 61 1055.2
20260506104548 57 22 7.0 0.0 0.00 0.00 0.00 63 1055.2
20260506104418 57 45 11.0 0.0 0.00 0.00 0.00 62 1055.2
20260506104257 57 67 7.0 0.0 0.00 0.00 0.00 62 1055.2
20260506104144 57 67 6.0 0.0 0.00 0.00 0.00 62 1055.2
20260506104039 57 45 10.0 0.0 0.00 0.00 0.00 63 1055.2
20260506103934 57 45 7.0 0.0 0.00 0.00 0.00 63 1055.2
20260506103830 57 90 5.0 0.0 0.00 0.00 0.00 63 1055.2
20260506103724 57 67 15.0 0.0 0.00 0.00 0.00 62 1055.2
20260506103610 57 45 11.0 0.0 0.00 0.00 0.00 62 1055.2
20260506103450 57 67 10.0 0.0 0.00 0.00 0.00 62 1055.3
20260506103337 57 67 5.0 0.0 0.00 0.00 0.00 62 1055.2
20260506103232 57 67 7.0 0.0 0.00 0.00 0.00 62 1055.2
20260506103126 57 45 7.0 0.0 0.00 0.00 0.00 62 1055.2
20260506103013 57 22 4.0 0.0 0.00 0.00 0.00 62 1055.2
20260506102900 57 112 8.0 0.0 0.00 0.00 0.00 64 1055.2
20260506102739 57 45 5.0 0.0 0.00 0.00 0.00 64 1055.2
20260506102626 57 45 5.0 0.0 0.00 0.00 0.00 63 1055.2
20260506102521 57 112 12.0 0.0 0.00 0.00 0.00 63 1055.2
20260506102408 57 67 12.0 0.0 0.00 0.00 0.00 62 1055.1
20260506102257 56 0 4.0 0.0 0.00 0.00 0.00 63 1055.1
20260506102150 56 67 8.0 0.0 0.00 0.00 0.00 64 1055.1
20260506102045 56 45 10.0 0.0 0.00 0.00 0.00 64 1055.2
20260506101940 56 67 3.0 0.0 0.00 0.00 0.00 64 1055.1
20260506101827 56 112 3.0 0.0 0.00 0.00 0.00 63 1055.1
20260506101722 56 45 8.0 0.0 0.00 0.00 0.00 65 1055.1
20260506101616 56 90 16.0 0.0 0.00 0.00 0.00 65 1055.1
20260506101511 56 90 10.0 0.0 0.00 0.00 0.00 66 1055.2
20260506101406 55 67 0.0 0.0 0.00 0.00 0.00 66 1055.2
20260506101255 55 90 6.0 0.0 0.00 0.00 0.00 66 1055.1
20260506101139 55 45 15.0 0.0 0.00 0.00 0.00 66 1055.1
20260506101029 55 112 7.0 0.0 0.00 0.00 0.00 66 1055.1
20260506100922 55 45 11.0 0.0 0.00 0.00 0.00 66 1055.1
20260506100802 55 90 7.0 0.0 0.00 0.00 0.00 66 1055.1
20260506100658 55 22 4.0 0.0 0.00 0.00 0.00 67 1055.1
20260506100550 55 22 8.0 0.0 0.00 0.00 0.00 67 1055.1
20260506100440 55 112 0.0 0.0 0.00 0.00 0.00 66 1055.1
20260506100332 55 22 14.0 0.0 0.00 0.00 0.00 66 1055.1
20260506100212 55 45 3.0 0.0 0.00 0.00 0.00 66 1055.1
20260506100058 55 45 10.0 0.0 0.00 0.00 0.00 66 1055.1
20260506095938 55 67 8.0 0.0 0.00 0.00 0.00 66 1055.1
20260506095832 55 67 9.0 0.0 0.00 0.00 0.00 66 1055.0
20260506095718 55 45 17.0 0.0 0.00 0.00 0.00 66 1055.0
20260506095606 55 0 8.0 0.0 0.00 0.00 0.00 66 1055.0
20260506095445 55 45 8.0 0.0 0.00 0.00 0.00 67 1055.1
20260506095332 55 112 8.0 0.0 0.00 0.00 0.00 67 1055.0
20260506095227 55 112 7.0 0.0 0.00 0.00 0.00 67 1055.0
20260506095122 55 67 9.0 0.0 0.00 0.00 0.00 67 1055.1
20260506095008 55 22 8.0 0.0 0.00 0.00 0.00 66 1055.0
20260506094855 55 45 12.0 0.0 0.00 0.00 0.00 67 1055.0
20260506094735 55 45 5.0 0.0 0.00 0.00 0.00 67 1055.0
20260506094630 55 90 3.0 0.0 0.00 0.00 0.00 68 1055.0
20260506094525 55 45 8.0 0.0 0.00 0.00 0.00 68 1055.0
20260506094411 55 22 14.0 0.0 0.00 0.00 0.00 68 1054.9
20260506094258 55 22 5.0 0.0 0.00 0.00 0.00 68 1055.0
20260506094146 55 67 5.0 0.0 0.00 0.00 0.00 67 1054.9
20260506094040 55 90 17.0 0.0 0.00 0.00 0.00 68 1054.8
20260506093927 55 0 9.0 0.0 0.00 0.00 0.00 68 1054.8
20260506093813 55 45 8.0 0.0 0.00 0.00 0.00 68 1054.8
20260506093700 55 67 6.0 0.0 0.00 0.00 0.00 68 1055.0
20260506093539 55 45 12.0 0.0 0.00 0.00 0.00 68 1054.9
20260506093426 55 0 4.0 0.0 0.00 0.00 0.00 67 1054.9
20260506093313 55 22 13.0 0.0 0.00 0.00 0.00 67 1054.9
20260506093201 55 22 9.0 0.0 0.00 0.00 0.00 67 1054.9
20260506093054 55 22 0.0 0.0 0.00 0.00 0.00 67 1055.0
20260506092942 55 112 9.0 0.0 0.00 0.00 0.00 67 1055.1
20260506092830 55 90 6.0 0.0 0.00 0.00 0.00 68 1055.0
20260506092723 55 90 4.0 0.0 0.00 0.00 0.00 68 1055.0
20260506092612 55 45 6.0 0.0 0.00 0.00 0.00 68 1055.0
20260506092505 55 45 5.0 0.0 0.00 0.00 0.00 67 1055.0
20260506092400 55 22 6.0 0.0 0.00 0.00 0.00 66 1055.0
20260506092250 55 45 10.0 0.0 0.00 0.00 0.00 66 1055.0
20260506092143 55 67 6.0 0.0 0.00 0.00 0.00 66 1055.0
20260506092029 55 90 7.0 0.0 0.00 0.00 0.00 67 1055.0
20260506091909 55 67 5.0 0.0 0.00 0.00 0.00 66 1055.0
20260506091805 55 67 9.0 0.0 0.00 0.00 0.00 66 1055.1
20260506091659 55 45 7.0 0.0 0.00 0.00 0.00 67 1055.0
20260506091552 55 67 2.0 0.0 0.00 0.00 0.00 67 1055.0
20260506091431 55 67 6.0 0.0 0.00 0.00 0.00 67 1055.0
20260506091309 55 90 15.0 0.0 0.00 0.00 0.00 66 1055.0
20260506091142 55 67 5.0 0.0 0.00 0.00 0.00 67 1055.0
20260506091037 55 67 7.0 0.0 0.00 0.00 0.00 67 1055.0
20260506090923 55 67 4.0 0.0 0.00 0.00 0.00 67 1054.9
20260506090801 55 90 7.0 0.0 0.00 0.00 0.00 66 1055.0
20260506090635 55 45 6.0 0.0 0.00 0.00 0.00 66 1054.9
20260506090527 55 112 13.0 0.0 0.00 0.00 0.00 66 1054.9
20260506090414 55 45 15.0 0.0 0.00 0.00 0.00 66 1054.9
20260506090301 55 67 4.0 0.0 0.00 0.00 0.00 66 1054.9
20260506090148 55 45 9.0 0.0 0.00 0.00 0.00 67 1055.0
20260506090037 55 45 7.0 0.0 0.00 0.00 0.00 66 1054.8
20260506085930 55 112 11.0 0.0 0.00 0.00 0.00 66 1055.0
20260506085810 55 45 11.0 0.0 0.00 0.00 0.00 66 1054.9
20260506085657 55 67 11.0 0.0 0.00 0.00 0.00 67 1054.8
20260506085551 55 112 12.0 0.0 0.00 0.00 0.00 67 1054.9
20260506085439 55 90 6.0 0.0 0.00 0.00 0.00 66 1054.9
20260506085335 55 67 6.0 0.0 0.00 0.00 0.00 67 1054.9
20260506085227 55 67 11.0 0.0 0.00 0.00 0.00 69 1054.9
20260506085106 55 90 5.0 0.0 0.00 0.00 0.00 68 1054.8
20260506084944 55 45 0.0 0.0 0.00 0.00 0.00 69 1054.9
20260506084832 55 90 7.0 0.0 0.00 0.00 0.00 68 1054.9
20260506084710 55 67 6.0 0.0 0.00 0.00 0.00 68 1054.9
20260506084550 55 90 7.0 0.0 0.00 0.00 0.00 68 1054.9
20260506084444 55 112 9.0 0.0 0.00 0.00 0.00 68 1054.9
20260506084317 55 67 6.0 0.0 0.00 0.00 0.00 69 1054.8
20260506084203 55 67 6.0 0.0 0.00 0.00 0.00 69 1054.9
20260506084048 55 90 9.0 0.0 0.00 0.00 0.00 69 1054.9
20260506083920 55 45 6.0 0.0 0.00 0.00 0.00 69 1054.9
20260506083815 55 45 12.0 0.0 0.00 0.00 0.00 69 1054.9
20260506083703 55 112 14.0 0.0 0.00 0.00 0.00 68 1055.0
20260506083548 55 67 8.0 0.0 0.00 0.00 0.00 69 1054.9
20260506083419 55 67 7.0 0.0 0.00 0.00 0.00 69 1054.9
20260506083257 55 67 16.0 0.0 0.00 0.00 0.00 70 1054.9
20260506083138 55 45 7.0 0.0 0.00 0.00 0.00 70 1055.0
20260506083031 55 90 0.0 0.0 0.00 0.00 0.00 71 1055.0
20260506082910 55 90 4.0 0.0 0.00 0.00 0.00 70 1055.0
20260506082757 55 112 5.0 0.0 0.00 0.00 0.00 70 1055.0
20260506082652 55 67 4.0 0.0 0.00 0.00 0.00 70 1054.9
20260506082539 55 67 11.0 0.0 0.00 0.00 0.00 70 1055.0
20260506082434 54 45 6.0 0.0 0.00 0.00 0.00 69 1054.9
20260506082320 55 67 7.0 0.0 0.00 0.00 0.00 69 1054.9
20260506082200 55 67 0.0 0.0 0.00 0.00 0.00 69 1054.9
20260506082046 55 45 6.0 0.0 0.00 0.00 0.00 69 1054.8
20260506081926 55 90 6.0 0.0 0.00 0.00 0.00 69 1054.8
20260506081820 55 67 12.0 0.0 0.00 0.00 0.00 69 1054.8
20260506081706 54 112 7.0 0.0 0.00 0.00 0.00 69 1054.8
20260506081545 54 90 15.0 0.0 0.00 0.00 0.00 69 1054.8
20260506081424 54 90 9.0 0.0 0.00 0.00 0.00 68 1054.8
20260506081256 54 45 12.0 0.0 0.00 0.00 0.00 68 1054.8
20260506081153 54 112 9.0 0.0 0.00 0.00 0.00 68 1054.8
20260506081045 54 112 8.0 0.0 0.00 0.00 0.00 68 1054.8
20260506080926 54 67 5.0 0.0 0.00 0.00 0.00 68 1054.8
20260506080812 54 45 8.0 0.0 0.00 0.00 0.00 68 1054.8
20260506080706 54 112 13.0 0.0 0.00 0.00 0.00 68 1054.8
20260506080555 54 90 8.0 0.0 0.00 0.00 0.00 68 1054.8
20260506080449 54 45 6.0 0.0 0.00 0.00 0.00 68 1054.8
20260506080342 54 45 11.0 0.0 0.00 0.00 0.00 68 1054.8
20260506080222 54 67 11.0 0.0 0.00 0.00 0.00 69 1054.9
20260506080110 54 90 7.0 0.0 0.00 0.00 0.00 68 1054.8
20260506073525 53 67 13.0 0.0 0.00 0.00 0.00 71 1054.6
20260506073419 53 67 11.0 0.0 0.00 0.00 0.00 71 1054.6
20260506073315 53 45 16.0 0.0 0.00 0.00 0.00 71 1054.6
20260506073209 53 67 7.0 0.0 0.00 0.00 0.00 71 1054.6
20260506073040 53 90 13.0 0.0 0.00 0.00 0.00 72 1054.5
20260506072927 53 90 18.0 0.0 0.00 0.00 0.00 72 1054.6
20260506072814 53 67 7.0 0.0 0.00 0.00 0.00 72 1054.6
20260506072703 53 45 9.0 0.0 0.00 0.00 0.00 73 1054.5
20260506072555 53 45 7.0 0.0 0.00 0.00 0.00 72 1054.6
20260506072434 53 45 5.0 0.0 0.00 0.00 0.00 72 1054.6
20260506072321 53 67 6.0 0.0 0.00 0.00 0.00 73 1054.5
20260506072208 54 45 8.0 0.0 0.00 0.00 0.00 73 1054.6
20260506072055 54 112 8.0 0.0 0.00 0.00 0.00 72 1054.6
20260506071941 54 45 10.0 0.0 0.00 0.00 0.00 72 1054.6
20260506071812 54 45 9.0 0.0 0.00 0.00 0.00 71 1054.6